GFSFLT2_sfc_temp_009.txt.gz
Temp
74 78 77 70 69 70 70 70 71 71 71 71 71 71 72 72 72 72 72 72 72 72 72 71 71 70 69 69 68 69 78 86
79 80 79 78 75 69 69 70 70 70 71 71 71 71 72 72 72 72 71 71 71 71 70 70 70 70 70 69 69 69 84 86
79 80 80 78 76 74 71 70 70 70 72 71 72 82 83 81 71 71 71 70 70 70 70 69 69 69 71 70 69 84 83 85
79 79 78 80 83 80 82 82 84 83 83 82 85 82 82 82 75 71 71 70 71 71 71 70 69 84 84 76 83 81 83 83
79 79 80 83 82 84 85 83 82 82 81 83 81 83 81 83 82 83 83 74 83 80 81 83 80 80 80 79 79 80 82 82
81 83 81 81 84 85 85 84 84 83 83 82 80 81 78 78 80 79 81 83 81 81 82 80 80 80 79 77 77 78 79 79
82 82 80 81 82 82 82 79 79 81 81 78 79 79 74 75 70 70 75 81 81 80 81 80 79 79 78 77 75 76 76 78
80 80 81 82 81 80 80 80 80 80 80 79 77 79 75 75 76 76 79 79 80 79 77 76 75 75 74 75 74 75 75 75
79 79 81 80 79 80 79 78 74 80 79 77 76 78 74 69 71 72 73 75 75 76 75 75 75 75 73 74 74 75 75 74
80 81 80 79 74 67 67 74 75 75 73 73 71 71 69 69 72 72 72 71 71 70 70 70 71 72 72 73 73 74 73 73
80 79 78 74 70 78 77 74 75 75 74 75 74 74 74 75 76 74 73 74 74 72 71 70 69 69 70 71 71 72 72 74
80 79 78 74 82 79 78 78 78 79 78 77 76 77 74 74 76 72 72 73 72 71 67 69 68 68 69 67 68 70 71 70
79 79 78 81 81 79 78 76 77 76 76 74 74 74 74 72 73 73 72 71 69 68 67 65 65 67 65 63 64 66 68 69
80 79 80 82 82 81 80 79 77 76 75 73 74 73 74 73 70 70 70 69 67 66 65 63 64 65 60 59 54 58 64 65
80 80 81 80 79 79 77 77 75 76 76 76 73 71 72 71 70 69 67 67 66 65 64 61 59 61 62 57 51 49 54 60
81 80 78 76 78 76 73 74 72 71 72 72 72 72 71 71 70 68 67 66 64 64 66 61 59 56 59 61 58 55 49 47
78 77 76 76 75 75 73 71 71 72 70 68 69 69 69 69 68 66 65 65 64 63 62 60 59 57 56 55 54 54 54 49
74 74 74 73 72 71 68 67 67 67 65 65 65 66 66 66 65 63 63 63 62 63 61 58 55 54 56 54 52 50 49 48
73 73 71 71 70 69 67 66 65 65 64 63 62 63 63 63 62 61 62 63 62 59 54 53 52 52 54 53 54 52 52 50
72 72 70 69 68 67 67 66 66 66 63 63 62 61 62 61 61 61 62 61 57 57 54 53 52 53 53 52 52 52 52 51

GFSFLT2_sfc_temp_012.txt.gz
Temp
68 69 72 70 69 69 70 70 70 70 70 71 71 71 71 72 72 72 72 71 71 71 71 70 71 71 70 70 68 69 68 72
68 68 69 70 71 69 69 69 70 70 70 70 70 71 71 71 71 71 71 71 71 71 71 71 71 70 70 69 68 70 72 72
69 69 71 70 70 70 70 70 70 70 70 70 69 72 72 72 71 71 71 70 70 71 71 71 70 69 71 70 69 71 71 70
71 71 71 72 77 71 70 73 72 72 73 71 72 74 73 76 72 71 72 71 71 71 71 70 70 71 70 70 69 69 69 69
74 72 72 75 75 74 74 75 72 74 75 75 74 74 72 72 70 72 69 70 73 71 72 72 72 69 68 67 68 68 66 67
75 76 73 73 75 75 74 75 74 73 74 75 72 71 70 69 68 67 67 70 71 70 69 71 68 70 68 68 67 65 65 65
76 75 74 75 74 74 74 73 74 74 72 73 72 70 67 67 66 67 68 70 70 69 67 67 66 67 66 67 66 66 66 65
75 75 74 76 73 73 72 71 71 72 72 72 72 70 67 66 67 65 67 67 68 67 65 64 64 65 66 66 66 66 66 66
74 73 75 73 73 73 71 70 71 71 70 69 69 63 63 63 63 63 63 66 66 64 63 62 61 64 63 64 64 64 64 64
76 78 74 70 67 66 66 69 69 68 67 65 66 67 66 65 65 63 63 63 63 62 61 60 60 60 59 60 60 62 63 65
75 74 71 68 67 69 70 69 68 67 66 66 68 68 68 65 64 63 63 63 62 62 59 58 57 58 61 60 57 58 59 65
75 74 71 68 72 70 70 69 69 69 68 68 68 68 67 64 64 63 63 62 61 59 58 58 57 55 62 61 55 55 57 57
75 73 71 72 73 70 68 66 67 67 67 67 66 66 67 65 63 62 62 60 58 59 57 55 54 55 52 53 53 54 53 53
75 75 74 75 74 71 70 69 67 67 66 66 66 65 65 65 61 60 60 58 57 56 54 52 53 53 48 48 44 48 51 54
75 71 75 74 71 72 69 68 65 66 65 64 65 65 66 64 61 59 58 57 55 54 53 52 49 50 51 46 42 39 44 48
75 76 73 73 73 68 66 65 62 62 62 62 63 62 61 62 60 57 55 55 54 53 57 51 50 46 48 53 46 44 40 39
73 72 72 71 70 68 65 63 62 62 59 59 59 59 60 60 58 55 53 53 53 53 52 51 49 46 44 44 44 43 43 39
69 70 70 69 66 64 61 59 59 57 57 56 55 56 56 57 57 54 53 53 53 52 50 48 46 45 46 47 44 41 39 38
68 69 67 66 64 62 60 59 59 56 57 55 54 53 53 53 53 53 52 53 52 51 48 47 46 43 44 44 44 43 43 41
68 68 66 65 62 61 61 61 59 58 56 56 54 53 52 53 52 53 53 53 51 50 47 46 46 44 43 43 43 44 43 42

GFSFLT2_sfc_temp_015.txt.gz
Temp
67 68 68 69 69 69 69 70 70 71 71 71 71 71 71 72 72 71 71 71 71 71 71 71 71 71 70 68 68 69 65 66
65 67 67 67 69 68 69 69 69 70 70 70 70 70 71 71 71 71 71 71 71 71 71 71 71 70 69 68 68 68 63 63
65 65 67 67 67 69 70 70 70 69 70 69 68 68 68 70 69 70 71 70 70 71 71 69 69 69 70 69 68 65 64 61
64 66 66 68 73 67 66 70 68 67 68 68 68 67 67 71 69 69 70 69 70 71 71 69 70 67 65 67 64 64 63 61
66 67 69 69 70 67 66 66 66 67 69 68 68 69 67 67 65 63 65 69 68 69 68 68 66 64 63 62 63 63 60 60
69 69 69 69 70 68 68 68 68 68 69 69 67 64 64 63 62 62 63 64 63 64 65 66 64 64 64 63 62 61 60 60
69 70 69 69 68 69 68 68 67 68 68 68 66 63 63 63 62 62 63 63 62 61 63 62 61 62 62 62 62 62 61 60
68 69 68 70 69 67 65 65 67 65 65 65 64 62 61 60 60 61 60 60 60 60 59 58 59 59 60 60 61 59 59 59
67 67 68 68 66 66 64 65 65 64 63 61 61 61 59 60 59 58 58 59 59 59 57 57 56 59 58 59 58 58 58 58
68 73 66 64 63 62 63 64 61 61 60 61 62 63 61 59 58 57 58 58 58 56 56 55 54 54 53 54 54 56 56 58
67 66 64 63 62 62 63 62 61 60 59 60 62 62 62 58 58 58 59 57 56 56 54 53 52 52 55 53 51 51 53 57
68 66 64 64 63 63 62 60 59 59 59 60 62 61 62 58 58 57 57 56 54 54 53 53 51 51 58 54 49 50 50 49
67 65 64 63 63 61 59 58 58 58 60 61 60 60 60 58 57 57 55 54 52 53 51 50 50 48 47 46 48 48 49 47
67 67 65 66 70 61 61 62 58 59 58 59 60 60 60 60 55 54 53 53 52 51 49 48 47 47 44 42 39 42 45 47
68 67 68 67 67 64 61 59 57 56 56 56 57 58 58 56 53 51 50 50 49 48 48 48 45 46 45 42 36 34 37 43
70 71 69 65 64 63 62 56 56 54 54 54 54 56 55 55 53 50 49 48 48 47 52 46 45 41 43 47 42 40 34 33
69 69 67 63 62 60 59 56 54 52 52 51 53 53 53 53 52 50 49 48 47 46 44 44 43 41 41 40 40 39 38 35
68 67 62 59 58 56 55 54 51 51 50 49 50 50 50 51 53 49 49 47 46 45 44 44 42 42 43 41 40 37 36 34
65 63 58 58 55 54 53 52 52 51 49 48 49 48 48 48 49 47 47 47 47 46 44 43 42 40 40 40 40 39 40 38
60 60 58 57 55 54 54 53 50 51 50 49 48 47 47 48 47 48 48 49 46 45 43 42 42 40 40 40 40 40 40 38

GFSFLT2_sfc_temp_018.txt.gz
Temp
65 65 67 67 67 69 69 70 70 71 71 71 71 71 71 71 71 71 71 71 71 72 71 71 71 70 70 68 68 67 62 63
63 64 65 66 67 68 69 69 69 70 70 70 69 70 71 71 71 71 71 71 71 72 71 71 71 70 69 68 67 66 61 60
63 64 66 66 66 69 69 70 70 69 69 69 67 67 68 69 68 70 70 69 70 71 71 69 68 68 68 67 66 61 60 59
64 65 65 66 71 66 65 68 66 66 67 67 66 66 66 68 68 69 69 70 69 69 68 68 66 63 62 65 61 61 59 59
63 64 66 68 68 64 64 64 64 66 66 66 65 66 64 64 63 62 62 66 65 65 64 63 63 61 60 60 60 60 57 58
63 65 66 66 66 65 64 65 65 65 66 67 64 62 62 61 60 60 61 60 60 60 60 61 61 61 61 60 59 57 57 57
65 66 67 66 65 64 65 65 66 66 66 66 63 61 60 60 59 59 59 60 60 58 58 58 58 59 59 59 58 57 57 56
66 66 66 67 66 65 64 65 64 63 62 62 62 61 58 58 58 59 58 57 57 56 56 56 55 56 57 56 56 56 56 55
65 64 66 65 64 63 62 64 62 61 61 61 61 60 58 58 57 57 56 56 56 55 55 54 54 56 54 55 55 54 54 54
66 71 64 63 62 60 61 60 59 59 59 59 60 60 59 57 56 56 55 55 54 53 53 53 52 51 50 51 51 53 53 53
64 63 62 61 60 61 60 59 59 58 57 57 59 59 59 56 55 54 55 54 53 53 52 51 49 50 53 50 49 48 49 53
65 63 61 61 61 59 58 57 56 57 57 57 59 58 58 56 55 54 54 53 52 51 50 50 49 48 55 51 47 46 46 45
65 62 61 62 61 59 55 54 55 55 57 58 57 57 57 55 53 53 52 52 50 50 48 48 47 46 45 44 44 44 44 44
64 64 62 63 64 60 57 58 54 55 55 56 57 56 56 55 52 51 50 50 49 48 47 46 44 44 42 40 37 41 43 44
65 65 63 64 62 59 56 55 54 53 52 53 54 55 55 52 51 49 48 47 46 45 45 45 43 42 42 41 35 33 35 40
66 66 64 64 63 61 60 59 56 52 51 51 52 53 52 52 50 48 47 46 45 44 46 42 42 40 40 45 40 40 34 31
65 64 61 63 62 63 59 52 52 50 49 49 49 49 50 51 49 48 46 45 44 43 43 42 42 40 39 39 38 36 35 32
62 66 64 64 60 56 57 53 51 49 47 47 47 47 47 48 49 47 45 44 44 43 42 42 40 40 39 39 38 36 35 33
64 64 60 59 58 53 53 52 51 50 48 47 47 46 45 45 46 45 46 45 45 43 42 41 40 39 39 39 38 37 37 36
62 62 58 56 54 51 51 52 50 49 49 47 47 46 46 47 48 48 46 47 46 43 42 41 40 39 39 38 37 37 37 37

GFSFLT2_sfc_temp_021.txt.gz
Temp
63 65 66 67 68 69 69 70 70 71 71 71 71 70 71 71 72 72 72 72 71 71 71 71 71 70 68 67 67 67 60 61
62 63 64 65 66 69 69 69 69 70 70 69 69 70 70 71 71 71 72 71 71 71 70 69 69 69 67 66 66 65 59 59
61 62 63 65 65 68 69 70 69 69 69 69 66 65 66 67 69 70 70 69 70 70 69 68 67 67 67 66 65 59 59 58
61 62 63 64 69 66 65 67 66 66 66 66 65 64 64 67 67 68 69 68 68 68 67 66 64 60 60 63 57 57 57 57
62 64 65 64 66 63 63 63 63 64 65 64 64 64 63 62 61 61 61 65 63 63 62 61 60 59 58 57 57 56 53 55
63 63 63 64 64 62 63 63 63 63 64 65 62 60 60 60 58 58 59 58 58 58 57 58 57 58 58 57 56 54 53 54
63 63 63 63 63 61 62 63 64 64 63 63 61 59 58 58 57 57 57 57 57 56 56 56 56 56 56 56 55 54 53 52
63 62 64 63 63 63 62 63 62 62 62 61 62 59 57 56 56 56 56 55 55 54 54 54 53 54 54 54 53 52 52 52
62 62 63 63 63 62 61 62 61 61 60 61 60 58 57 56 55 54 54 54 54 53 53 53 52 54 52 52 51 51 51 51
63 68 63 61 61 59 59 59 59 58 58 58 59 59 57 55 54 53 53 53 53 52 51 51 50 50 48 47 48 49 50 49
63 63 60 60 59 59 59 58 57 56 56 57 57 57 57 54 53 53 53 52 51 53 49 49 47 47 50 46 45 45 46 50
62 61 60 59 59 57 55 55 55 55 55 56 57 56 56 54 53 52 52 51 50 49 48 47 46 45 52 47 43 43 44 43
61 60 59 60 58 55 54 53 53 54 54 56 55 55 55 53 51 51 50 49 48 48 46 46 44 43 43 43 41 42 42 42
61 62 59 60 61 57 56 54 52 52 53 53 54 54 53 53 50 48 48 48 47 46 45 44 42 41 41 38 37 40 41 41
62 62 61 61 59 56 53 53 52 51 50 50 52 53 52 50 49 47 47 46 44 43 44 44 41 40 40 40 34 32 34 38
65 64 62 61 59 58 58 55 53 50 50 49 49 50 50 49 48 47 45 45 44 44 45 41 41 39 40 43 39 37 33 31
64 63 62 62 60 60 55 51 50 48 48 48 47 47 48 48 47 46 45 45 45 45 43 42 42 40 38 37 36 35 34 31
61 60 61 60 60 61 57 52 49 48 46 45 45 45 45 47 47 45 45 45 47 46 42 41 40 39 38 38 37 35 34 31
60 60 60 60 58 58 57 55 51 51 48 45 44 45 44 45 45 46 48 48 47 45 42 41 39 38 38 37 37 36 36 34
61 59 56 56 56 55 54 54 54 54 51 49 45 45 44 45 46 48 48 48 43 42 43 39 40 38 38 37 37 36 36 35

GFSFLT2_sfc_temp_024.txt.gz
Temp
63 64 65 68 69 69 69 70 70 71 71 71 71 71 71 72 71 72 72 71 71 71 71 71 70 69 68 67 66 66 60 61
62 62 62 63 65 68 69 69 69 70 70 69 69 70 70 70 70 71 71 71 71 71 70 70 69 68 67 66 65 64 59 60
62 61 61 62 65 68 69 70 69 69 69 69 66 65 65 66 69 70 70 69 69 69 68 67 67 67 66 65 63 57 58 58
61 60 60 62 67 65 65 67 65 65 65 65 65 64 64 65 67 68 68 68 67 67 66 65 63 58 58 60 56 56 56 56
61 60 61 62 64 63 62 63 63 64 64 64 63 63 62 61 60 60 59 63 61 61 60 59 58 57 56 55 55 54 52 54
61 62 63 63 62 62 62 62 62 62 63 64 61 60 59 58 57 56 57 57 56 56 55 56 56 56 55 54 53 52 52 52
62 61 62 62 61 60 60 61 62 62 62 62 60 58 57 57 56 56 56 56 55 54 54 54 54 55 54 53 52 52 51 51
60 60 62 62 60 59 60 61 62 61 61 60 60 58 55 55 55 55 54 54 53 53 53 52 52 53 52 52 51 50 50 50
60 61 62 61 60 60 60 61 62 60 60 60 58 56 55 55 54 53 53 53 53 52 52 51 51 52 50 49 49 49 49 49
61 65 61 60 59 59 59 60 59 58 58 58 58 57 56 54 53 52 52 52 52 51 51 49 48 48 46 46 47 48 48 48
60 61 59 59 58 58 58 58 57 56 56 56 57 57 56 53 52 51 52 51 50 51 49 49 47 46 47 44 44 44 46 49
61 60 59 58 57 55 54 55 55 55 55 55 56 55 55 53 51 51 51 49 49 48 47 45 45 45 50 45 42 42 43 43
59 58 57 59 56 53 53 53 53 53 54 55 55 54 53 51 50 49 49 48 47 47 45 45 43 42 43 41 42 42 41 41
59 59 58 60 60 55 55 53 51 52 52 52 53 52 52 51 48 47 47 46 45 45 45 42 41 41 41 39 37 40 41 42
60 60 60 60 58 54 52 52 52 51 49 49 50 51 50 49 47 46 45 45 44 43 43 44 41 42 40 40 36 35 35 39
61 61 60 59 57 56 57 54 52 50 49 48 47 49 48 48 47 46 45 44 43 45 45 43 42 40 40 42 39 38 36 34
60 60 60 60 59 58 55 50 49 48 47 46 46 46 47 47 46 46 44 44 45 45 45 42 42 39 39 38 37 36 36 33
58 58 59 58 58 56 55 52 49 47 45 44 44 44 44 45 46 44 44 45 46 46 45 42 41 40 40 41 38 37 35 32
59 58 58 57 57 55 54 53 53 51 48 46 44 43 43 43 44 45 45 47 45 46 44 41 40 39 39 39 38 37 37 35
60 59 59 58 58 56 55 54 54 53 51 49 47 48 45 44 47 49 47 48 47 45 43 41 40 39 38 37 37 37 37 36

GFSFLT2_sfc_temp_030.txt.gz
Temp
66 65 67 68 68 69 70 70 71 72 72 72 71 71 71 72 72 72 72 72 71 71 70 70 70 68 68 67 67 70 82 82
64 64 65 66 69 68 69 69 70 70 70 70 70 70 71 71 71 71 71 71 70 70 69 69 68 67 67 66 68 71 82 82
61 61 63 66 68 71 70 70 69 69 70 69 70 79 81 79 71 70 69 68 68 68 68 67 66 66 66 68 71 81 81 82
60 61 61 63 66 70 73 73 77 74 74 76 78 77 81 80 73 68 67 67 67 67 67 68 73 81 78 73 80 79 80 80
60 60 60 62 61 64 72 74 72 74 74 76 76 75 78 80 78 78 76 72 78 76 77 80 76 79 77 77 77 78 80 80
61 62 62 62 63 62 70 73 75 73 74 75 76 78 77 77 79 79 76 77 74 74 76 74 74 74 74 74 74 77 78 79
62 64 62 63 68 74 76 74 75 77 78 79 80 78 76 78 76 78 78 78 77 76 76 76 74 74 74 73 73 73 73 76
63 67 70 73 75 75 76 78 79 79 79 78 78 78 76 76 76 77 76 79 78 78 77 76 76 75 72 72 71 72 72 72
67 70 73 73 75 75 76 78 78 78 78 76 77 76 74 76 78 76 76 77 75 75 74 74 75 75 70 71 73 72 72 71
71 74 73 73 73 76 77 78 78 80 78 77 76 77 76 76 76 76 76 75 76 75 75 74 74 75 72 74 74 73 70 70
73 73 73 72 73 74 76 77 79 79 78 78 76 77 76 76 77 74 74 74 74 74 73 74 71 73 73 71 70 70 68 71
75 75 74 74 77 77 79 78 78 77 78 79 76 78 75 75 75 72 74 74 72 73 70 72 73 72 71 68 68 68 69 68
76 75 75 76 77 75 75 74 76 76 77 77 75 76 74 74 74 72 73 73 72 70 70 66 68 69 67 65 65 64 63 66
76 77 77 77 79 78 78 77 77 76 75 74 75 74 75 73 72 72 72 71 68 68 67 67 69 67 65 65 62 63 63 63
77 78 78 77 78 79 77 76 74 72 70 70 73 73 74 73 71 72 70 70 68 67 67 65 64 65 63 59 60 59 63 64
78 79 79 78 78 78 73 74 72 71 68 72 74 71 72 73 72 70 68 69 68 67 67 65 64 59 61 64 63 62 58 57
78 79 79 79 77 76 75 74 76 77 71 72 70 68 67 71 70 68 67 68 66 65 62 61 63 63 61 63 61 61 59 56
77 77 78 78 77 75 75 74 74 71 70 67 65 61 61 65 67 66 66 66 63 61 56 57 62 61 64 62 61 58 58 56
77 77 77 77 76 74 74 73 71 67 66 63 61 63 59 62 63 61 58 58 59 58 54 54 59 61 60 61 61 60 60 58
78 77 76 78 75 74 73 71 69 67 65 60 58 57 55 60 54 57 60 56 57 52 53 56 60 60 59 59 60 60 59 58

GFSFLT2_sfc_temp_036.txt.gz
Temp
67 69 70 70 69 70 70 71 71 71 71 71 71 71 71 72 72 72 71 71 71 70 70 69 69 69 70 69 69 70 71 72
65 67 68 69 70 69 69 70 70 70 70 70 70 70 71 71 71 71 71 70 70 70 69 69 68 69 69 69 69 68 71 70
64 65 67 68 68 70 70 70 69 69 70 69 70 71 71 72 69 69 69 68 68 68 68 68 68 68 69 69 70 69 71 68
62 61 61 64 67 68 68 70 71 71 70 70 71 69 69 70 68 68 67 67 68 68 68 67 68 66 66 68 67 69 69 65
59 59 60 60 60 60 61 63 66 69 70 71 70 69 68 67 66 66 64 67 67 66 66 66 68 67 66 65 67 68 66 65
58 59 59 58 59 59 61 62 63 67 70 70 69 68 68 67 67 67 66 66 65 65 65 66 67 68 67 66 65 64 64 63
58 60 59 59 59 60 61 61 62 68 70 71 71 68 67 68 68 69 68 68 68 67 66 66 66 67 66 66 66 65 65 64
57 58 59 60 59 61 61 62 63 68 69 70 70 70 69 69 69 69 69 69 69 67 66 66 65 65 65 65 65 64 65 63
56 57 58 59 59 61 61 64 71 70 70 70 71 71 69 69 68 68 68 69 69 66 67 65 64 66 64 64 64 64 63 64
59 62 59 60 62 65 64 68 70 70 70 70 71 72 71 69 68 68 69 67 67 65 64 63 63 63 61 61 62 63 63 63
62 62 62 65 66 67 67 68 69 71 70 71 71 73 72 69 70 68 68 67 65 66 64 63 61 61 62 60 60 60 61 66
67 67 67 67 68 68 69 70 69 69 69 71 70 72 71 69 70 68 67 65 64 64 63 62 61 60 69 64 59 59 59 58
67 67 67 69 67 66 68 67 70 70 68 72 70 72 71 69 68 66 65 64 64 63 61 60 58 59 57 57 57 58 57 57
68 68 69 70 70 70 71 70 71 72 70 70 67 68 71 69 67 66 65 64 63 61 60 57 58 58 54 54 50 52 54 56
71 71 70 70 71 72 74 72 72 72 70 69 70 71 72 70 67 66 64 63 61 60 59 58 55 55 57 52 48 48 51 53
73 73 73 74 74 73 72 71 69 71 70 70 71 70 69 69 68 66 65 64 62 59 61 58 56 53 55 59 56 55 49 46
73 75 75 75 75 73 72 70 71 72 70 69 68 67 68 66 67 65 64 63 61 61 60 58 57 53 51 50 52 53 52 48
74 74 76 76 75 73 71 67 69 69 68 68 67 66 67 65 66 63 58 56 54 53 54 56 54 53 51 51 50 50 50 47
74 74 75 76 75 74 72 71 70 69 69 67 65 64 63 60 58 56 55 54 53 52 53 52 51 50 50 50 51 54 55 52
75 75 74 76 75 74 73 73 71 68 67 64 63 62 60 57 56 55 54 53 53 53 51 49 49 48 48 49 52 54 53 52

GFSFLT2_sfc_temp_039.txt.gz
Temp
66 68 70 70 69 69 70 71 71 71 71 71 71 71 72 72 72 72 71 71 70 70 70 70 70 70 69 68 68 69 67 67
65 66 67 68 69 68 69 70 70 70 70 70 69 70 70 71 71 71 70 70 70 70 69 70 70 70 70 68 68 68 65 63
65 65 65 67 68 68 70 70 70 70 70 69 67 67 68 69 69 69 69 68 69 69 69 69 69 69 69 69 67 64 62 61
63 63 64 65 66 65 66 68 68 69 70 68 68 65 67 68 68 68 68 68 68 68 68 68 67 63 63 65 62 61 61 60
60 60 61 61 62 64 63 64 63 67 67 69 67 66 65 64 63 64 64 66 66 66 65 64 64 62 62 61 61 60 58 59
58 58 59 60 61 60 61 62 63 64 66 68 67 65 64 64 63 62 62 63 63 63 61 62 62 64 64 63 61 59 57 57
57 58 58 59 61 60 60 61 62 63 67 66 67 65 64 65 64 63 63 64 63 62 63 64 63 63 63 62 62 59 58 57
58 58 59 59 59 60 60 61 63 63 63 66 67 66 64 64 63 64 64 64 64 63 63 62 61 61 61 61 61 60 58 57
57 58 59 59 60 61 60 61 64 63 64 66 67 66 65 64 62 64 64 65 65 63 62 61 59 61 61 61 61 60 59 58
58 61 59 60 60 61 61 60 63 65 67 65 66 67 67 65 65 64 65 64 63 62 60 60 59 58 57 57 58 59 60 58
58 59 59 60 61 62 63 63 65 68 68 64 66 68 67 65 65 64 64 63 62 62 60 59 57 56 57 56 56 56 58 62
59 59 60 61 63 63 64 61 64 67 64 64 68 67 67 65 65 65 64 62 61 60 59 58 57 57 65 59 55 55 54 53
58 58 59 61 61 60 59 60 62 62 62 67 65 67 66 63 63 62 65 61 60 59 58 57 55 54 53 52 52 53 53 53
60 61 61 63 64 65 63 62 61 63 63 64 65 65 65 64 62 61 61 60 59 58 57 54 54 53 51 49 47 49 50 53
63 64 65 66 66 67 64 61 61 61 60 63 65 64 66 64 62 61 60 59 58 56 55 56 52 51 52 50 46 44 46 49
64 65 65 67 67 66 64 64 64 65 61 63 63 64 63 65 63 63 62 60 58 57 59 57 55 52 53 56 53 52 46 43
65 66 66 68 67 67 65 65 65 66 63 64 65 63 65 64 61 60 60 59 59 59 57 55 53 51 51 51 51 51 51 47
66 67 67 67 67 67 67 64 63 63 62 63 63 64 63 62 63 61 59 55 54 54 54 53 52 52 51 50 50 49 48 46
67 68 68 69 69 69 68 65 62 64 63 60 61 59 58 60 59 56 55 54 55 55 52 50 50 50 50 50 50 50 50 49
68 68 69 70 70 69 70 67 66 67 61 59 59 61 61 57 55 55 54 54 52 51 50 49 50 49 49 49 49 50 50 51

GFSFLT2_sfc_temp_042.txt.gz
Temp
66 66 69 68 69 70 70 71 71 71 72 72 72 72 71 72 71 71 71 71 71 71 71 71 71 70 69 68 67 67 62 63
64 65 66 64 65 69 69 69 69 69 70 70 70 70 71 70 70 71 70 70 70 71 70 70 69 69 68 67 66 65 60 60
64 64 64 64 66 69 69 70 69 69 69 68 68 68 68 68 69 69 69 69 69 69 69 68 67 67 68 67 65 60 59 59
63 62 62 64 66 67 67 69 68 68 67 65 66 64 67 68 68 68 68 68 68 68 68 67 65 60 61 64 58 59 59 59
62 62 63 63 63 64 64 66 64 65 66 67 66 66 65 63 64 63 63 66 64 65 64 62 63 61 60 57 59 58 57 58
61 62 62 62 64 64 64 65 63 64 62 65 65 63 61 60 63 61 61 60 61 61 61 62 62 62 61 59 58 56 55 56
58 60 60 61 63 60 62 62 63 64 66 66 65 64 61 60 61 61 60 60 60 60 60 62 62 62 61 60 58 57 57 57
57 58 60 60 60 62 61 61 63 64 63 66 65 63 61 61 60 60 60 60 60 61 61 60 60 60 60 60 58 57 57 56
57 57 59 60 61 62 60 61 64 64 64 63 63 63 61 61 60 59 60 61 61 61 60 59 58 60 59 59 58 57 56 56
58 60 59 61 61 64 63 61 62 64 63 63 64 64 63 61 62 61 61 61 61 60 59 57 57 57 56 55 56 57 56 55
56 58 59 61 61 62 62 61 62 63 63 62 63 64 64 62 62 61 61 60 59 60 57 57 55 54 55 54 53 54 55 58
59 60 60 60 61 61 60 59 61 63 59 59 62 63 64 62 62 62 61 60 58 58 57 56 55 55 61 57 51 52 52 51
58 58 58 59 60 59 59 57 56 58 59 61 62 63 64 61 61 60 60 62 61 59 56 55 52 52 51 50 50 50 50 50
57 58 58 59 60 60 59 60 57 59 60 60 62 63 63 62 61 60 61 59 58 56 56 52 52 51 50 47 46 48 48 50
57 58 58 60 61 60 57 57 57 58 61 61 62 63 63 63 61 60 60 60 58 56 55 55 52 49 51 50 43 44 46 47
58 59 59 60 61 60 60 60 59 62 63 64 61 62 63 63 61 60 59 59 56 56 55 53 54 52 53 56 53 51 47 45
59 60 61 62 62 62 61 60 62 61 58 61 62 61 63 62 61 59 59 58 56 55 53 53 53 52 51 50 51 51 51 47
61 61 62 64 64 63 62 60 61 61 59 60 62 62 61 60 61 60 59 58 56 55 54 52 51 51 51 51 51 49 48 47
61 62 62 64 64 64 64 63 61 62 62 60 60 58 57 59 61 59 58 57 56 55 53 53 50 50 50 51 51 50 49 50
62 62 62 64 64 64 65 64 64 63 64 60 61 62 62 60 60 60 59 55 54 55 53 52 50 50 50 50 50 50 50 50

GFSFLT2_sfc_temp_045.txt.gz
Temp
68 69 68 68 66 66 69 71 72 72 72 72 72 71 71 72 71 72 72 71 71 71 70 70 70 69 68 67 66 66 59 61
65 65 66 66 65 66 69 70 71 71 71 70 70 70 70 71 70 71 71 71 70 70 69 69 69 68 67 66 65 65 58 59
63 64 64 61 63 65 70 70 69 69 70 69 67 67 67 65 69 70 70 69 69 69 68 68 68 67 67 66 64 58 58 58
63 62 61 62 62 63 68 69 70 68 69 66 64 63 64 67 68 68 68 68 68 68 67 66 64 61 64 63 58 58 58 58
61 63 61 61 62 62 62 62 62 65 66 65 64 64 63 63 61 60 61 65 62 62 61 62 60 58 57 56 57 57 56 58
60 63 62 61 61 61 63 62 62 63 64 65 63 62 59 59 61 60 61 59 59 58 58 59 59 58 58 57 57 57 55 57
61 61 60 62 63 61 61 62 63 63 64 64 63 61 59 58 58 59 59 58 58 58 58 59 58 58 58 59 57 56 57 57
60 61 61 61 60 61 61 62 63 64 59 61 61 62 60 59 57 58 57 58 58 58 58 57 57 58 57 57 57 57 57 57
59 59 60 59 59 61 60 62 65 65 63 61 61 61 59 59 57 57 59 58 58 57 56 56 56 58 57 56 57 56 56 56
58 61 60 60 59 62 61 62 63 63 64 63 62 63 62 59 59 58 58 58 58 58 56 54 54 55 54 54 53 55 54 54
58 59 58 58 61 61 60 61 62 63 62 62 62 62 63 60 60 59 59 58 58 59 55 55 53 52 54 52 52 52 52 56
58 59 59 59 61 60 59 58 60 61 61 61 62 61 62 60 59 59 60 59 57 57 56 54 53 52 58 54 50 50 50 50
58 58 58 59 59 60 59 57 59 60 60 62 60 61 61 59 58 58 58 59 59 58 54 54 51 52 51 49 49 49 49 49
58 59 59 60 62 63 62 57 58 59 60 58 60 61 61 60 59 58 58 58 56 55 55 52 52 50 49 47 46 48 47 51
56 59 59 61 61 57 57 58 57 56 55 55 58 59 60 60 59 59 58 57 56 55 53 54 50 49 50 52 43 45 49 51
56 57 58 59 57 56 55 58 57 59 57 57 58 59 60 61 60 59 58 57 55 56 55 53 53 49 52 53 54 51 48 48
55 56 57 58 58 58 56 55 57 58 56 56 57 57 59 60 60 59 58 57 56 55 53 53 51 50 50 50 50 50 50 48
55 56 57 58 58 58 57 56 56 57 58 57 58 57 57 58 59 59 58 56 56 56 56 53 53 51 50 50 49 49 47 47
55 56 56 58 58 59 59 58 57 59 59 58 57 56 56 58 58 57 57 58 57 56 54 54 53 52 51 53 52 52 51 50
56 57 57 59 59 59 60 60 60 60 60 59 57 58 59 58 58 59 60 58 55 55 54 54 53 52 50 52 52 51 51 50

GFSFLT2_sfc_temp_048.txt.gz
Temp
64 67 69 69 68 68 69 71 71 72 72 73 72 72 72 72 72 72 71 71 70 70 70 69 69 68 68 67 66 66 60 62
64 66 66 65 65 68 68 71 73 71 71 71 70 70 71 71 71 71 71 70 70 70 69 69 69 67 67 66 66 64 59 60
65 65 63 62 63 65 67 69 71 70 70 69 67 64 65 64 69 70 69 69 69 69 69 68 67 67 66 66 64 59 59 60
63 64 63 63 64 63 63 65 69 69 68 66 64 63 62 66 68 69 68 68 67 68 67 67 64 62 64 64 59 58 59 59
61 60 60 61 62 62 62 64 67 67 64 65 62 62 62 59 60 62 62 64 63 64 62 61 58 59 58 57 58 58 58 60
61 60 59 60 61 62 62 62 63 64 63 64 63 61 60 59 59 58 57 57 58 59 58 56 57 58 58 57 57 57 57 59
61 61 61 60 60 61 60 61 61 62 63 64 61 61 61 59 58 57 57 58 58 57 58 57 55 56 57 57 57 57 58 58
60 61 61 60 60 61 61 62 62 61 61 60 62 61 60 59 56 58 57 58 57 58 59 56 55 57 56 57 57 56 57 57
59 60 62 61 61 61 61 62 62 62 61 60 61 61 60 58 56 57 57 56 58 57 56 55 54 57 56 56 56 56 56 57
60 61 60 60 60 60 61 62 64 64 61 61 62 61 60 58 58 57 56 56 57 57 56 54 54 54 54 54 54 55 55 55
58 60 59 58 59 59 60 60 63 62 60 61 61 61 61 60 59 58 58 57 57 58 55 55 54 53 53 52 52 52 53 56
58 59 59 58 59 59 58 58 60 62 61 62 62 62 62 60 60 58 58 57 56 57 55 54 54 53 57 53 49 50 51 52
58 57 58 58 57 57 58 57 58 59 60 61 61 62 61 59 59 58 58 57 56 55 54 53 51 51 51 50 50 50 50 50
57 58 57 58 58 58 60 59 59 60 60 59 60 61 61 60 57 57 56 55 55 53 54 51 52 51 50 48 47 49 48 49
58 59 59 59 60 60 58 58 58 57 57 58 59 60 60 59 59 57 57 56 54 53 53 53 50 49 50 51 46 47 49 50
58 59 59 60 62 60 60 61 61 62 59 58 59 60 58 59 58 57 57 55 55 54 54 52 51 49 49 52 52 52 48 47
53 57 58 60 59 59 57 57 60 58 55 55 55 55 58 58 58 57 56 55 55 54 52 51 50 49 51 50 51 51 51 50
52 54 55 57 57 56 56 57 56 55 54 55 55 54 54 56 57 57 57 56 55 55 54 52 53 52 53 52 51 50 49 47
51 53 54 56 56 56 56 57 56 57 57 57 56 54 54 54 55 55 55 55 55 55 54 54 53 53 53 52 53 53 52 51
52 53 54 56 56 56 57 57 56 56 56 56 54 54 54 55 55 56 56 56 55 54 54 55 54 53 53 52 53 54 52 51

GFSFLT2_sfc_temp_051.txt.gz
Temp
68 70 70 68 70 70 71 71 71 72 72 73 73 72 72 73 72 72 72 71 71 70 70 69 69 69 68 67 66 69 74 75
66 66 68 66 68 68 69 71 71 71 71 71 70 71 71 71 70 71 71 70 70 70 69 69 68 68 67 66 66 68 74 75
68 68 67 66 65 66 69 71 71 70 71 69 70 75 74 74 71 70 70 69 69 69 69 68 67 67 66 66 67 73 74 75
65 65 65 64 64 65 68 70 70 70 73 72 74 72 73 74 71 68 68 68 68 68 68 67 69 73 71 67 73 73 73 74
62 62 63 63 63 62 62 65 65 66 70 73 72 72 73 74 72 73 72 70 73 72 70 73 72 72 72 71 71 72 73 74
61 62 62 62 62 60 61 63 64 64 70 70 69 71 70 69 71 71 70 72 71 71 71 70 70 70 70 69 70 71 73 73
60 60 61 61 60 61 61 62 63 64 68 70 70 70 69 71 70 71 71 70 71 70 70 70 69 69 70 69 69 70 70 73
61 61 61 60 60 60 61 61 62 63 65 67 67 68 67 70 69 70 69 71 71 70 70 70 70 70 68 69 69 70 70 70
62 62 62 61 60 60 61 61 62 63 63 65 68 68 67 68 69 69 70 70 69 69 67 68 68 69 68 68 68 68 68 68
61 62 59 60 60 61 61 61 61 62 62 67 68 68 68 67 68 69 70 69 69 69 68 67 68 68 66 67 67 68 67 67
59 60 59 60 60 60 61 61 61 61 62 67 67 68 68 69 70 69 67 68 67 67 66 67 65 66 66 67 67 68 66 68
60 59 59 61 60 60 60 61 62 62 63 65 67 70 68 68 68 67 68 68 67 68 66 67 67 66 68 64 63 66 67 67
59 59 58 59 58 58 58 58 61 62 67 68 68 70 69 68 69 67 67 67 68 66 66 65 64 64 64 64 64 63 63 65
58 59 59 59 59 59 61 61 61 64 64 64 68 68 68 67 67 67 66 66 65 64 65 65 66 64 65 64 61 62 62 63
60 59 59 60 60 57 57 59 60 62 62 61 65 66 70 69 68 67 64 66 66 65 65 65 65 63 64 66 59 60 64 65
62 62 60 61 60 58 58 61 61 63 64 62 61 65 66 68 69 67 65 66 65 66 66 66 66 64 63 64 64 65 61 57
61 63 63 62 61 60 59 62 64 64 64 60 61 65 66 67 67 67 67 66 66 65 63 62 63 65 62 62 61 59 57 51
60 62 62 64 63 63 61 62 64 64 62 61 64 65 64 65 66 66 67 66 65 65 64 63 62 62 63 63 62 54 51 50
57 60 61 63 63 62 63 63 63 64 64 63 64 62 62 63 64 64 65 66 66 65 64 63 62 61 62 61 61 59 55 54
56 58 60 62 62 62 63 64 64 64 65 66 64 63 64 64 64 65 66 65 66 65 64 64 63 62 61 60 55 55 54 55

GFSFLT2_sfc_temp_054.txt.gz
Temp
74 74 77 72 72 71 70 72 72 72 73 73 73 72 72 73 73 73 72 72 71 70 70 69 69 69 68 68 69 70 82 82
69 69 72 77 73 67 70 70 71 72 72 71 70 71 71 71 71 72 71 70 70 70 69 69 69 68 67 66 68 70 82 82
67 64 66 70 70 68 71 72 70 71 70 69 70 76 76 76 74 70 70 69 69 69 69 68 67 67 67 67 68 82 82 82
67 63 67 69 70 65 66 68 73 70 70 71 75 75 75 79 72 69 69 68 68 68 67 67 70 77 75 69 81 80 81 81
69 65 67 66 63 62 64 65 65 65 66 68 73 76 77 77 76 75 75 71 77 74 72 79 79 79 77 79 78 79 81 80
64 66 65 65 63 63 64 65 65 64 64 68 73 75 76 76 78 78 77 79 77 77 78 78 78 79 78 77 77 80 81 80
65 63 63 63 62 61 63 64 64 64 65 72 74 74 75 78 79 80 80 81 79 78 79 78 77 77 77 76 77 77 78 80
62 64 63 63 60 61 62 63 63 63 66 74 75 75 74 76 77 79 80 80 80 80 79 78 78 78 76 76 76 77 77 78
63 61 62 61 61 61 61 62 63 63 70 72 75 73 71 72 77 78 79 80 79 79 78 79 79 78 76 76 76 76 77 76
64 65 62 62 61 61 61 61 62 63 68 70 71 71 71 73 77 78 79 78 78 78 77 76 77 77 76 76 76 76 75 75
62 62 61 62 62 61 61 61 61 62 66 71 70 72 73 75 76 76 76 78 77 77 76 76 75 76 76 75 75 76 74 76
62 62 62 62 62 61 61 60 60 61 65 71 73 74 73 75 76 75 77 77 76 75 74 75 75 76 76 74 74 75 76 75
60 59 60 60 59 60 60 59 60 61 64 69 71 72 73 75 76 74 76 76 76 73 74 71 73 74 72 71 72 72 72 74
61 60 61 61 60 60 61 61 62 64 65 68 71 71 74 74 75 74 75 76 74 72 72 71 74 72 71 72 67 70 72 72
61 61 60 61 60 61 60 59 59 60 63 69 71 73 76 76 74 75 74 75 73 71 71 71 71 71 72 72 67 65 73 74
65 62 61 60 60 60 58 57 58 61 63 70 73 73 73 75 74 73 73 74 73 73 73 72 72 70 71 73 73 74 69 66
67 64 63 61 61 61 59 59 61 62 63 64 68 71 73 74 74 73 73 74 72 72 71 70 73 70 71 72 70 71 70 67
68 65 63 62 61 62 60 61 63 64 61 61 61 63 68 70 73 72 71 72 72 71 72 70 70 71 70 72 70 69 68 67
69 66 63 63 62 63 64 64 65 67 65 65 65 62 62 64 68 70 70 70 72 73 71 71 70 69 69 69 71 71 70 69
68 69 69 67 64 64 68 69 70 69 70 71 71 70 71 67 70 71 71 72 72 72 72 72 71 70 69 70 71 71 68 63

GFSFLT2_sfc_temp_057.txt.gz
Temp
76 77 76 70 70 69 68 71 72 72 72 72 73 72 73 73 73 73 72 71 70 70 70 70 70 69 69 69 69 70 83 81
74 75 75 76 74 68 67 68 72 71 72 71 71 71 72 72 72 71 71 70 70 70 69 69 69 68 68 68 69 70 83 82
67 72 73 75 76 69 67 68 72 71 71 69 69 77 77 75 72 70 70 68 69 69 68 68 67 67 68 68 68 84 83 81
69 67 71 73 71 66 68 67 68 71 77 75 71 71 75 78 71 68 68 68 68 68 67 66 70 76 75 70 79 83 82 79
65 66 67 71 66 66 64 70 69 68 69 68 67 68 74 73 71 71 73 70 72 72 71 76 77 77 77 80 80 82 82 79
67 65 67 68 67 67 65 63 63 64 65 66 65 68 71 71 73 74 73 75 74 74 76 79 78 79 79 78 80 82 81 77
64 64 68 67 66 66 64 64 63 63 63 65 64 71 70 74 73 74 77 79 77 77 79 79 78 79 79 78 79 80 79 78
64 62 63 64 63 63 63 63 63 63 62 64 66 74 70 73 74 78 80 81 80 80 80 79 79 79 77 78 78 79 80 78
63 63 63 62 62 62 62 62 63 62 62 64 69 73 73 77 78 79 81 82 80 80 79 80 79 79 77 77 78 78 79 79
66 63 61 61 62 62 62 62 62 62 62 66 72 74 74 76 78 79 80 80 80 80 78 78 78 78 76 77 78 78 77 77
66 65 63 62 62 61 61 61 61 62 63 72 73 73 75 74 75 76 77 79 79 79 77 77 76 77 77 77 77 77 76 78
66 65 61 62 61 60 60 60 61 62 65 70 71 73 72 72 73 73 74 77 77 77 75 77 77 77 79 76 76 77 77 76
64 62 62 62 60 59 58 58 59 60 63 70 70 72 73 71 71 71 71 75 75 76 75 74 75 77 75 73 74 75 75 76
62 62 61 62 62 63 62 60 60 61 62 66 72 73 73 72 72 71 70 74 75 74 73 72 74 75 72 71 66 70 72 73
62 62 62 64 63 65 63 63 60 59 60 63 68 71 73 72 71 72 71 75 74 73 73 72 71 73 73 72 67 66 71 74
65 62 63 65 63 61 61 60 59 61 62 64 72 71 71 70 75 75 75 75 75 73 75 73 73 71 71 72 73 72 65 59
69 62 62 63 64 62 61 62 64 63 62 62 69 70 65 69 75 75 74 75 74 74 72 71 73 71 72 71 70 71 71 67
68 65 61 62 63 63 62 61 60 61 60 60 68 69 69 68 75 73 73 72 72 72 71 71 71 72 69 71 69 67 67 66
70 67 64 61 61 61 63 65 61 63 64 63 62 63 65 68 71 71 72 71 70 68 68 69 70 69 69 69 70 70 72 72
73 70 69 64 62 62 65 67 66 68 66 68 67 64 66 67 71 73 73 73 72 71 71 70 68 68 69 70 70 70 73 72

GFSFLT2_sfc_temp_060.txt.gz
Temp
75 74 74 70 69 68 67 66 64 71 72 73 73 72 72 73 73 73 72 71 70 70 70 70 70 70 69 69 69 70 74 71
73 73 73 71 70 67 66 66 64 62 71 71 71 71 72 72 71 71 71 70 70 69 69 69 69 69 69 69 69 71 73 71
71 71 72 71 67 68 66 67 62 66 70 70 69 73 71 71 71 70 69 68 68 69 68 67 68 68 69 68 68 72 74 70
69 69 70 67 66 66 64 64 64 67 70 70 71 70 70 72 69 68 68 68 68 67 67 67 69 66 66 67 67 75 71 68
69 68 69 67 65 65 64 65 65 65 67 68 66 66 69 68 67 66 66 67 67 66 66 68 68 67 67 67 69 74 71 68
68 68 67 67 67 66 64 63 65 63 64 65 66 64 65 67 67 67 67 68 66 65 66 67 67 69 69 70 71 73 69 67
66 66 66 67 66 66 64 64 64 63 63 64 64 64 64 66 68 68 69 69 67 66 67 70 68 69 70 70 71 72 69 67
64 64 66 66 66 65 65 64 63 62 62 64 64 63 63 66 67 68 69 70 70 69 70 68 68 68 68 70 71 73 70 67
63 61 63 64 65 65 64 64 63 62 62 63 64 63 66 68 68 69 70 71 71 70 70 68 67 70 68 68 69 70 71 68
63 64 62 63 63 63 63 64 63 62 62 62 64 65 69 68 69 70 72 73 72 69 67 66 66 66 65 65 66 68 69 70
63 62 61 61 61 62 62 62 61 61 61 61 63 65 69 66 64 64 70 69 68 69 66 66 64 65 66 64 65 65 66 71
64 63 62 61 61 60 61 60 60 61 61 63 64 68 68 66 68 67 67 68 67 66 66 66 65 64 73 68 64 64 64 63
64 62 61 60 59 58 58 58 59 60 61 65 66 67 67 67 66 66 67 66 66 66 66 65 64 65 62 61 61 63 62 63
64 63 62 61 60 61 60 59 59 60 61 66 66 66 67 68 66 66 66 65 66 65 66 63 64 64 60 59 54 57 61 63
62 63 62 62 62 61 60 60 59 58 58 62 67 67 69 68 66 65 65 65 64 64 65 64 61 61 63 60 54 52 58 60
62 62 62 63 63 61 59 58 57 61 60 62 66 67 67 69 68 66 64 64 65 65 67 64 63 60 61 65 61 60 56 53
62 62 62 63 63 63 61 60 61 62 61 60 63 65 66 67 67 65 65 66 66 65 64 64 63 60 61 59 59 59 60 55
63 61 62 63 63 63 62 61 60 61 60 60 61 64 64 64 67 66 66 65 65 64 64 63 64 62 61 61 60 58 57 56
66 61 61 62 61 62 62 62 62 61 61 61 61 62 64 62 63 64 66 66 65 65 63 62 63 62 62 61 61 60 61 61
66 64 62 61 62 62 62 63 63 62 62 63 62 63 65 66 64 64 65 67 67 65 63 63 63 62 62 63 61 61 62 62

GFSFLT2_sfc_temp_066.txt.gz
Temp
68 70 70 69 69 70 69 70 72 72 67 72 72 72 72 73 73 73 72 72 71 71 70 70 70 70 69 68 67 68 66 66
67 68 69 66 66 67 67 67 67 67 66 65 66 70 72 72 71 71 71 70 70 70 70 70 70 69 68 67 67 67 64 62
65 65 65 66 65 66 67 67 67 66 66 64 62 66 70 70 70 70 69 68 69 69 69 69 68 68 68 67 67 66 65 62
63 64 64 65 65 63 63 64 64 64 64 63 62 65 67 69 68 68 68 68 68 68 68 67 67 67 68 67 65 65 64 62
62 63 65 65 64 63 62 60 61 62 63 63 63 66 67 67 66 66 66 67 65 66 64 63 63 64 65 65 64 64 63 64
62 63 65 64 64 63 62 60 60 60 63 62 64 65 65 65 66 65 63 63 60 59 59 62 63 64 65 63 64 63 62 63
61 64 64 64 63 63 61 61 63 61 64 63 65 65 64 64 65 64 62 61 59 58 59 62 64 63 65 64 63 62 62 63
61 63 63 64 63 63 61 63 63 64 65 65 66 65 64 63 64 63 63 62 61 58 58 60 61 62 64 64 63 62 62 61
61 61 63 63 63 63 63 63 63 63 64 64 65 65 64 63 63 62 63 63 59 57 58 60 61 63 65 64 62 62 61 61
61 63 63 62 62 62 62 62 61 61 63 63 65 66 65 63 65 64 63 63 62 59 58 58 59 60 60 63 62 61 61 61
61 62 62 62 61 62 62 60 60 61 61 64 64 65 66 64 63 63 65 64 61 61 58 59 59 58 61 60 62 59 59 63
61 61 61 62 61 62 62 61 60 59 61 64 64 66 66 65 64 63 64 64 62 62 59 60 63 61 66 62 58 59 59 59
59 60 60 61 60 60 60 60 60 60 61 64 64 65 65 64 65 64 64 61 63 63 61 62 60 60 58 56 55 56 58 59
58 60 60 60 60 61 60 60 60 61 60 61 64 63 65 64 64 63 63 61 59 62 62 58 60 61 58 56 52 55 56 57
58 59 59 60 60 60 58 59 58 58 58 59 61 61 65 66 65 63 63 62 61 60 61 62 60 58 61 57 51 52 52 54
58 59 59 60 60 59 58 58 56 59 59 60 60 61 62 65 64 63 62 62 60 61 62 60 60 61 57 61 59 55 50 49
58 58 60 60 60 60 59 58 59 59 60 59 59 59 61 64 64 62 61 61 60 60 60 59 61 58 58 56 55 53 53 50
57 57 59 60 60 59 59 59 59 58 58 57 58 60 61 61 65 63 61 60 61 60 61 61 61 61 58 56 55 54 52 51
57 57 57 59 59 59 60 59 58 58 57 59 59 60 60 60 62 61 61 62 61 60 59 59 59 59 58 57 57 57 57 55
57 56 57 58 59 59 59 59 57 57 58 59 58 60 62 63 62 63 63 63 61 61 59 59 59 58 57 57 59 58 58 57

GFSFLT2_sfc_temp_072.txt.gz
Temp
67 71 72 70 70 68 68 69 72 71 72 71 72 72 72 73 73 74 73 72 71 71 70 70 70 69 68 68 67 67 64 65
65 69 70 67 65 66 68 68 68 71 67 66 68 70 71 70 72 72 71 71 71 70 70 70 69 68 67 67 67 67 64 65
63 66 65 64 65 66 68 68 69 69 68 67 65 66 68 69 69 70 70 69 69 69 69 68 68 67 67 66 66 62 64 64
62 62 63 63 65 67 66 66 66 66 66 66 65 64 65 67 67 69 68 68 69 69 68 67 66 64 65 65 63 63 63 62
61 63 64 64 64 65 64 65 64 64 65 65 65 64 65 65 64 66 65 67 67 66 66 65 63 63 60 61 61 61 62 61
61 64 64 63 63 63 64 64 64 63 64 64 64 64 64 63 63 63 64 64 62 63 63 62 63 61 61 61 62 62 60 61
63 64 64 63 63 62 62 63 63 63 63 63 64 63 64 63 63 63 63 61 60 59 60 61 60 60 62 62 61 60 60 61
62 63 64 63 63 62 61 61 61 62 62 62 64 63 64 65 64 62 60 63 61 59 61 61 60 60 60 61 61 59 60 60
61 62 63 63 62 62 61 61 61 61 61 62 64 64 65 65 64 61 60 60 57 57 57 58 59 60 59 61 61 59 59 59
62 63 62 63 62 62 62 62 62 62 62 62 63 65 66 64 63 61 59 59 59 59 58 58 58 58 57 58 60 59 58 58
61 61 61 62 62 61 62 61 62 62 63 62 63 65 65 64 62 61 61 59 59 59 56 59 58 56 57 58 58 57 57 59
62 62 61 61 62 61 61 60 60 61 62 62 63 64 63 62 61 60 62 61 60 60 58 57 59 58 60 56 56 57 56 56
61 61 61 61 60 60 59 58 59 59 61 62 63 62 61 61 60 60 61 61 61 60 60 59 55 58 54 52 53 56 56 56
60 61 61 61 61 61 61 60 59 60 60 61 62 61 60 60 60 61 61 59 58 60 60 56 56 59 54 53 49 53 56 57
59 61 61 61 61 60 59 59 59 58 58 59 61 62 61 60 60 61 61 61 58 59 56 57 54 54 59 54 49 50 53 54
59 60 61 61 61 60 59 59 57 58 58 59 60 62 62 61 60 60 61 61 59 60 59 58 57 56 54 58 58 54 51 49
56 59 60 60 60 60 59 59 59 59 59 58 59 60 61 62 60 60 61 61 59 59 58 58 58 57 56 55 55 55 55 52
58 60 59 59 60 60 59 58 57 57 57 57 58 58 59 60 61 59 60 60 59 59 58 59 58 58 58 56 56 55 53 53
59 58 57 57 57 58 58 58 58 57 58 58 57 58 57 57 59 58 59 60 59 59 58 57 57 57 57 58 57 57 57 56
58 58 58 55 54 55 57 55 55 58 58 58 58 59 59 59 59 58 59 59 59 59 58 57 57 56 56 57 58 59 58 58

GFSFLT2_sfc_temp_075.txt.gz
Temp
72 72 73 70 70 71 69 70 71 71 71 73 72 71 72 73 74 74 74 72 72 71 71 70 70 69 69 68 67 69 77 78
72 72 72 73 75 67 68 69 70 71 70 69 67 68 69 71 72 73 72 71 70 70 70 70 69 68 68 67 67 69 78 78
70 70 73 71 74 70 69 70 70 69 69 67 67 71 69 69 69 70 70 69 69 70 69 68 68 67 67 67 69 77 77 77
70 70 68 69 72 70 73 74 75 72 69 68 70 69 68 67 67 68 70 68 68 69 68 67 70 75 73 68 76 75 76 76
70 68 68 69 67 68 70 71 72 69 68 68 69 69 67 67 65 66 66 68 71 71 71 75 74 75 74 73 73 73 75 75
69 67 67 67 68 66 68 68 67 66 67 67 67 68 65 65 64 65 65 65 72 73 74 72 72 72 72 71 72 74 74 73
67 66 66 66 66 65 65 67 68 66 66 66 66 67 66 65 65 66 64 63 71 72 72 71 70 70 71 71 70 71 71 73
66 66 67 66 65 64 64 65 65 64 64 65 67 68 66 64 65 65 63 63 69 72 72 71 72 72 70 70 70 71 72 72
65 65 66 65 65 64 64 63 63 63 63 65 66 67 65 65 67 63 62 64 68 70 70 71 71 72 70 70 70 70 70 71
66 65 65 64 64 64 64 63 62 63 63 64 65 67 67 65 65 63 62 62 67 69 69 69 69 70 69 70 70 70 69 70
63 65 64 64 64 63 64 63 63 62 62 62 63 65 66 65 63 62 61 65 66 68 69 69 68 69 69 69 69 69 69 69
64 65 64 64 64 63 63 63 63 63 63 62 63 63 65 64 63 61 61 64 67 68 66 68 69 68 69 67 68 69 69 68
64 63 63 63 63 61 60 60 61 61 63 65 63 63 64 62 61 61 62 64 67 65 66 65 66 68 65 64 65 66 66 67
64 64 63 64 66 63 62 61 61 62 63 62 65 63 62 61 60 61 62 66 65 66 65 65 66 66 65 64 58 61 64 64
64 65 65 65 65 65 61 61 61 60 59 61 61 61 60 60 60 61 63 65 64 64 65 65 63 64 67 67 59 60 61 63
65 65 65 65 64 62 60 60 58 60 60 60 61 62 61 60 60 61 63 65 64 64 66 64 62 60 64 67 68 65 61 56
63 64 64 63 64 63 62 62 65 62 61 60 60 61 61 61 60 60 60 63 64 63 63 65 67 65 65 64 65 65 66 63
60 61 62 63 63 64 62 61 61 61 59 61 60 60 60 60 60 59 59 60 59 60 61 65 65 66 66 66 65 64 63 63
59 61 60 61 62 62 61 61 61 60 60 60 59 58 58 59 60 59 60 59 60 60 59 60 62 63 65 64 64 65 65 66
61 60 59 60 60 61 61 61 60 61 60 60 61 60 60 59 60 60 60 60 59 59 59 58 59 60 62 64 65 64 65 67

GFSFLT2_sfc_temp_078.txt.gz
Temp
80 76 77 71 70 71 71 70 71 70 71 73 73 71 71 74 74 74 74 74 72 71 71 70 70 70 69 68 69 71 86 85
75 75 77 79 78 70 70 70 70 70 70 70 70 69 69 69 70 72 72 72 71 71 70 70 70 68 68 67 68 71 86 85
77 74 76 76 79 78 71 70 70 70 70 68 68 74 69 69 69 71 71 68 69 70 69 68 68 68 67 68 68 85 85 86
79 73 74 75 76 77 80 81 80 79 78 75 77 73 72 76 72 70 69 67 68 68 68 67 70 78 77 70 84 83 84 84
82 77 80 78 73 74 81 83 81 77 77 75 73 74 75 74 70 71 69 69 68 69 71 78 78 77 79 81 82 81 84 84
81 76 76 73 73 72 75 79 81 76 78 75 72 72 71 73 70 72 66 68 66 70 75 75 75 78 80 80 79 82 82 83
81 73 71 71 70 71 70 76 73 72 74 77 77 73 74 70 69 68 66 66 67 71 75 73 76 79 79 78 78 79 78 81
81 75 73 75 73 69 69 72 73 70 70 73 76 72 69 68 67 67 66 65 66 73 75 73 77 79 78 78 77 77 77 79
77 72 71 73 75 70 67 67 69 70 70 71 70 70 68 67 67 65 65 65 65 71 74 75 77 79 77 77 77 76 78 77
77 72 71 74 70 69 67 67 67 69 68 68 69 70 69 68 66 64 64 62 64 69 74 74 76 77 76 77 77 77 76 77
76 73 72 71 69 68 67 67 67 65 65 65 67 70 70 68 66 66 64 61 62 70 74 75 74 76 76 77 77 77 76 77
76 70 70 70 70 67 66 66 65 64 63 64 65 64 65 66 66 63 65 61 61 69 72 73 76 76 75 75 75 76 76 76
76 68 69 68 66 63 63 63 64 63 65 66 65 65 63 64 63 62 63 61 61 65 73 72 72 74 72 69 71 72 72 73
75 72 69 69 69 67 65 63 64 65 65 65 66 69 65 63 62 61 61 61 61 67 70 71 72 73 70 69 59 63 67 71
76 74 74 72 72 71 71 65 65 63 63 64 65 69 64 63 62 61 61 62 61 67 71 71 68 72 74 72 63 63 65 70
77 76 72 74 75 71 69 65 60 66 66 61 66 65 61 61 62 61 61 63 63 67 72 71 71 68 71 75 76 75 66 62
76 75 72 75 74 72 71 65 64 69 65 61 62 62 61 60 60 60 61 63 66 69 69 69 71 71 69 70 71 72 73 71
73 72 70 73 73 71 67 65 65 67 63 63 60 60 60 60 60 60 61 62 67 67 68 69 70 70 69 67 70 69 69 70
68 72 67 69 72 71 70 70 67 65 67 63 61 60 59 59 59 60 59 60 64 67 65 66 67 68 69 71 70 71 74 72
65 68 65 67 70 71 68 68 65 65 66 68 66 63 63 64 60 59 60 59 60 61 61 61 64 64 67 68 70 69 71 72

GFSFLT2_sfc_temp_081.txt.gz
Temp
84 80 77 71 71 71 71 72 72 71 71 72 74 72 70 72 74 74 75 74 72 71 71 71 71 70 70 69 69 71 79 78
83 81 81 81 80 70 71 71 70 71 73 71 70 70 69 70 68 70 71 72 73 71 69 69 69 69 69 69 69 72 84 82
78 78 81 82 80 79 71 71 71 70 72 70 69 76 74 71 67 67 69 69 71 69 69 68 67 68 68 69 69 86 81 83
81 76 80 82 85 78 81 81 81 80 81 79 79 76 75 71 67 66 68 68 68 68 67 67 68 74 75 71 81 81 86 85
86 78 80 80 82 78 83 82 82 79 80 78 77 74 72 72 68 70 70 69 70 67 67 73 76 77 77 79 79 83 85 83
87 84 83 82 84 80 84 82 78 81 79 77 74 74 72 69 75 73 71 71 68 67 68 74 75 76 79 80 77 83 85 79
87 85 83 80 74 73 76 83 83 78 79 77 75 75 72 71 73 71 74 72 67 66 67 73 76 77 79 75 81 81 82 81
87 82 80 77 73 72 73 77 77 78 77 78 76 75 74 72 69 72 71 69 67 66 67 71 75 75 76 78 80 81 80 80
85 80 79 79 78 74 75 72 72 71 73 75 76 76 74 74 73 69 68 66 65 65 65 71 78 76 76 76 80 78 78 79
86 82 78 79 79 75 72 73 73 70 71 71 75 76 72 68 67 66 67 64 64 64 64 71 71 78 71 78 79 78 78 78
84 80 77 77 78 71 70 70 68 67 70 69 72 71 71 67 69 65 65 64 63 63 64 72 74 72 71 78 76 78 76 79
84 79 78 78 76 71 73 68 67 67 68 69 71 70 67 68 66 64 65 63 62 63 64 72 75 74 75 74 71 74 77 77
82 78 78 77 75 71 70 69 70 68 68 67 66 68 69 68 64 63 63 63 62 63 63 68 69 72 69 66 67 69 71 77
82 78 77 77 77 75 73 70 72 72 71 69 67 67 67 63 64 62 64 62 61 61 62 64 70 72 66 68 57 63 68 69
82 79 77 76 77 75 73 67 70 67 69 69 69 70 70 67 63 62 62 61 60 62 62 65 66 69 72 69 61 61 65 68
82 80 78 77 76 73 69 68 66 71 71 70 70 70 69 66 62 62 61 61 60 62 63 64 67 67 71 76 73 74 66 61
81 80 79 78 77 77 74 73 72 73 72 67 65 66 63 62 62 61 61 61 61 61 62 64 68 68 71 72 70 71 67 67
79 79 78 78 78 77 75 73 71 71 69 65 62 62 61 60 60 61 61 61 60 61 63 67 69 70 71 70 69 67 67 69
78 79 75 78 77 76 75 74 71 67 68 66 61 59 59 59 59 59 59 61 62 63 63 66 68 68 68 68 69 70 72 67
78 78 73 77 76 75 75 75 73 73 72 70 66 62 61 60 59 59 59 60 61 62 66 67 67 67 67 68 68 66 66 70

GFSFLT2_sfc_temp_084.txt.gz
Temp
76 75 74 72 71 71 72 73 72 73 73 72 73 71 70 72 72 70 71 73 73 71 71 71 71 71 70 68 68 72 71 70
78 76 75 74 73 70 71 72 72 72 72 71 70 71 71 70 69 69 68 68 71 71 70 70 69 69 69 69 69 71 71 71
78 77 77 77 77 74 71 72 71 70 71 70 68 72 70 70 69 69 69 67 67 70 69 68 67 67 66 67 69 75 75 75
77 75 77 77 81 75 75 75 74 73 74 72 73 72 70 69 67 68 68 67 67 68 68 67 67 67 66 66 70 73 73 72
77 75 77 76 77 76 76 76 76 74 74 74 72 71 69 66 65 66 67 67 67 67 66 68 69 68 68 66 71 75 74 72
79 76 76 76 77 76 76 76 75 74 74 73 70 68 68 67 67 67 67 67 67 67 66 68 69 70 72 71 73 74 71 70
82 78 77 77 76 75 75 76 74 73 73 73 72 69 68 69 69 68 68 68 67 66 66 67 68 70 72 72 71 74 72 70
82 80 79 77 74 72 72 73 74 74 72 72 72 70 68 70 69 69 68 67 67 65 65 66 65 67 68 70 72 72 72 69
80 78 77 74 73 72 71 72 72 73 72 72 72 71 69 69 68 68 67 68 66 65 64 64 64 66 68 71 72 72 70 69
82 79 75 73 73 71 72 70 70 69 70 70 71 72 70 68 66 66 67 65 64 64 63 63 63 64 69 69 71 69 68 71
80 76 74 74 74 71 70 69 69 68 68 69 70 71 70 67 67 67 65 64 63 63 63 63 62 63 69 68 68 66 67 72
79 76 73 74 72 69 68 66 68 68 67 66 68 68 68 67 65 65 65 63 63 63 62 62 62 65 72 69 67 66 66 65
78 74 72 73 68 67 66 63 65 65 66 66 67 67 67 66 64 64 64 63 63 63 61 61 61 65 63 63 64 65 66 65
77 75 74 74 71 70 70 69 67 67 67 67 67 67 67 65 64 63 63 62 62 62 61 60 61 64 63 60 55 59 63 65
78 75 75 74 73 72 70 69 67 67 65 65 66 67 66 65 64 63 62 62 61 62 61 61 59 61 67 62 55 53 56 60
79 77 76 74 74 71 67 65 64 66 65 66 67 67 66 65 63 63 63 62 61 61 62 61 60 61 63 68 65 62 55 52
78 76 75 74 74 71 68 65 67 67 66 65 65 64 65 65 63 62 61 61 61 61 61 61 60 61 63 62 63 62 64 57
77 75 74 74 73 70 68 67 67 66 64 63 62 61 61 62 62 61 62 61 60 60 61 61 61 61 63 63 63 60 61 58
76 75 73 73 72 72 70 69 67 67 65 63 61 59 59 59 60 60 60 60 61 60 60 60 61 60 64 64 63 63 64 63
75 75 74 73 72 72 71 69 67 67 66 64 62 60 60 60 59 59 59 60 60 60 61 61 61 61 62 62 62 63 63 63

GFSFLT2_sfc_temp_090.txt.gz
Temp
69 70 71 70 70 70 70 71 71 72 72 72 73 72 72 73 73 73 72 71 71 71 70 71 72 70 70 69 68 69 67 67
68 68 68 68 69 69 70 70 70 71 71 71 71 71 72 72 71 71 70 70 70 70 69 69 72 70 69 68 68 68 68 68
68 67 67 67 67 69 70 71 70 70 70 70 68 69 69 69 69 70 68 69 69 69 69 68 68 68 67 68 67 66 66 67
67 67 67 67 70 67 67 69 68 68 68 68 67 66 66 67 67 68 67 67 68 68 68 67 66 66 66 66 64 64 65 66
68 68 68 68 69 66 66 68 67 66 66 66 65 66 67 65 64 66 65 67 65 66 66 66 66 65 65 63 64 66 64 64
69 69 69 69 68 67 66 67 66 66 66 66 66 66 66 65 66 66 65 64 64 64 64 66 65 65 65 63 64 66 65 64
70 70 70 70 68 67 67 67 67 66 65 67 67 66 64 65 64 66 65 66 66 63 64 65 65 65 64 64 64 65 66 66
70 70 71 71 68 68 67 67 67 66 65 66 66 65 63 63 62 64 66 66 66 64 63 64 65 65 64 65 65 65 65 65
70 70 70 70 68 68 67 66 66 66 66 66 66 64 64 63 62 62 64 66 65 65 63 63 63 64 63 63 64 65 64 64
71 72 70 69 69 68 66 65 66 66 66 66 66 65 65 64 63 62 63 65 65 64 63 62 61 62 62 62 63 64 64 64
70 71 69 69 67 68 66 65 64 64 65 65 65 65 65 64 63 64 63 64 64 63 62 62 61 61 62 62 62 63 63 65
71 71 69 68 67 65 64 64 64 65 64 65 65 65 64 64 63 63 64 64 63 62 61 61 61 62 64 62 60 64 64 62
71 69 67 67 65 63 63 63 63 62 63 63 64 64 64 64 62 63 64 62 62 61 61 60 60 62 61 58 58 62 63 62
70 68 66 68 66 67 64 63 62 64 61 61 62 62 63 63 63 62 63 61 62 61 61 60 60 61 58 57 53 55 58 61
69 68 67 68 66 62 61 59 59 61 61 59 61 62 62 62 63 63 63 62 61 62 61 61 59 59 60 57 53 52 56 56
70 69 68 66 64 63 62 62 60 62 63 59 60 61 61 62 63 63 63 63 62 61 61 61 62 58 58 60 59 58 55 50
70 68 66 65 65 63 62 60 59 59 59 59 59 59 60 62 63 63 62 62 62 62 61 61 61 60 59 58 58 58 57 56
68 67 65 65 65 63 62 60 58 59 59 58 60 60 60 61 62 62 62 62 62 62 62 61 61 61 60 59 59 58 57 55
66 66 63 64 63 63 62 61 60 60 59 58 59 60 60 61 61 61 61 62 62 62 61 61 61 60 59 59 60 60 65 59
65 64 62 63 62 62 62 61 61 60 59 60 59 59 59 59 60 61 61 61 61 62 61 61 60 60 59 59 59 59 60 60

GFSFLT2_sfc_temp_096.txt.gz
Temp
70 72 72 71 70 70 70 71 71 72 72 72 73 72 72 73 73 73 74 73 73 73 72 71 72 71 69 68 68 68 67 67
70 71 71 70 70 69 70 70 70 71 71 71 71 71 72 72 72 73 72 72 72 72 72 71 71 69 68 67 68 68 67 66
69 70 71 71 71 69 70 71 70 70 70 70 68 69 69 70 70 71 71 70 70 71 70 70 69 68 67 67 67 66 65 65
69 69 69 71 71 70 69 71 71 71 71 69 68 67 67 68 68 69 69 69 69 68 69 68 68 66 66 67 66 66 65 65
66 68 69 68 69 69 69 70 70 69 68 67 66 67 67 65 66 65 65 67 66 66 65 64 64 65 65 65 65 65 65 65
66 65 67 68 69 69 70 70 68 68 67 66 67 67 67 65 66 63 63 63 64 64 64 63 63 65 65 65 64 65 65 64
67 65 65 66 67 68 69 70 69 68 67 66 69 67 67 66 65 65 62 63 64 64 65 65 64 65 65 65 64 64 64 64
68 67 67 65 66 66 67 68 69 67 67 68 68 68 67 66 66 65 65 65 64 64 64 64 65 65 64 64 63 63 64 64
67 67 67 66 66 65 65 66 67 66 67 68 68 67 66 66 64 64 64 65 63 60 62 63 62 63 63 63 63 63 63 63
68 69 67 67 67 67 65 65 65 65 66 67 67 67 66 64 63 64 64 64 64 62 62 63 63 62 62 62 62 62 62 62
64 67 67 68 67 67 66 65 65 65 66 67 66 66 65 64 63 63 64 63 63 63 62 63 62 62 62 62 61 61 62 63
66 67 67 68 68 67 67 66 66 66 65 66 66 65 64 63 63 63 63 63 62 63 62 62 62 62 62 61 61 61 62 61
62 63 66 68 68 66 65 65 66 66 66 66 66 65 65 64 63 62 63 62 62 62 62 61 60 62 60 58 58 60 61 61
55 63 66 67 69 68 66 66 66 66 66 66 66 65 65 64 63 63 62 62 62 62 62 60 61 62 59 57 53 55 58 60
53 53 66 67 68 68 62 63 62 61 63 63 64 65 64 64 64 63 62 63 62 62 61 61 59 61 60 57 52 52 54 56
52 55 58 67 68 67 65 65 63 65 63 63 63 64 63 64 64 63 63 63 62 62 62 61 60 59 59 59 58 57 54 51
53 55 58 67 67 67 64 64 64 63 64 64 63 62 63 63 62 63 63 63 63 61 61 61 61 60 60 58 57 57 56 54
51 53 60 65 68 66 63 64 59 61 62 61 62 61 62 62 62 62 63 62 61 61 61 61 60 61 60 60 60 56 55 54
48 51 56 65 66 65 63 62 60 61 62 61 61 61 61 61 61 61 61 62 62 61 61 61 61 60 60 60 60 59 59 59
46 48 51 63 64 64 63 59 59 59 60 61 61 61 61 61 61 61 62 60 61 61 61 61 60 60 59 59 59 59 59 59

GFSFLT2_sfc_temp_099.txt.gz
Temp
76 77 75 71 70 70 70 71 72 72 72 73 73 73 73 73 74 73 74 73 73 73 73 72 72 71 70 69 69 69 74 75
75 75 74 75 76 69 70 70 70 71 71 71 71 71 72 72 72 73 73 72 73 71 71 71 71 70 69 68 68 68 72 74
73 73 74 74 75 75 71 71 70 70 72 70 70 79 78 78 74 72 71 70 71 70 71 70 69 68 68 68 68 72 70 69
71 71 71 73 74 73 75 76 76 76 76 76 77 77 78 77 74 70 69 69 69 69 69 69 68 76 75 69 75 73 71 68
71 70 71 71 71 72 73 74 74 73 73 73 74 75 76 77 76 77 77 71 76 72 74 76 76 76 76 75 73 73 69 69
75 73 70 69 71 71 73 72 72 71 71 71 71 71 73 74 74 75 76 75 71 75 73 74 74 75 75 74 73 71 67 68
76 73 71 71 69 70 71 72 72 71 70 71 73 71 71 71 71 72 75 75 72 71 71 73 73 74 74 73 73 70 66 67
76 74 73 72 72 70 70 72 73 71 69 71 72 72 70 70 68 69 70 71 70 69 68 70 72 72 70 70 70 69 65 65
74 74 75 72 72 72 71 71 72 71 70 70 71 71 70 69 69 68 69 69 68 66 66 66 68 71 71 67 69 66 63 64
70 74 74 72 72 70 71 70 70 69 69 70 71 70 69 68 68 68 70 67 66 64 64 64 66 65 64 64 69 65 64 63
66 69 72 73 72 73 72 71 69 69 69 69 69 69 68 67 68 68 69 67 66 64 64 65 64 64 65 65 65 65 64 63
63 66 68 73 73 71 71 69 71 71 69 69 70 69 67 66 66 66 68 67 65 64 63 64 65 64 65 64 65 65 64 63
62 61 64 70 71 70 67 66 68 69 70 69 69 68 66 65 65 66 66 65 65 64 63 64 62 64 61 60 60 62 62 63
59 60 62 64 73 74 72 69 68 70 69 67 68 67 66 65 65 65 65 64 64 64 63 61 62 63 59 58 55 56 59 62
58 58 59 61 64 74 72 69 67 65 66 65 67 68 66 65 66 65 64 65 63 64 64 62 60 62 62 59 53 53 55 58
54 56 58 61 64 70 70 67 66 69 69 67 65 65 64 64 65 66 65 64 64 64 65 63 62 60 61 65 63 63 57 53
51 53 55 58 63 68 71 67 70 72 70 65 64 66 64 62 62 64 64 64 65 66 63 62 62 61 60 59 59 60 62 59
49 50 51 55 62 67 69 68 69 67 67 64 67 66 63 64 64 64 64 64 65 66 64 63 62 62 62 60 60 59 60 62
46 48 49 53 55 69 68 67 69 68 68 67 67 66 64 64 64 64 63 65 65 67 63 64 62 62 61 61 61 62 67 66
44 45 47 51 53 67 67 65 64 67 68 68 68 67 66 65 64 64 64 66 64 64 63 63 63 61 62 62 61 61 62 64

GFSFLT2_sfc_temp_102.txt.gz
Temp
83 83 79 71 71 71 71 72 72 73 73 73 74 73 73 74 74 74 74 74 74 74 73 73 72 72 71 69 69 71 87 88
81 81 79 82 82 70 70 71 71 71 72 72 72 72 73 73 73 73 74 73 73 72 71 72 72 71 70 68 68 70 83 82
79 78 77 78 82 81 72 71 71 71 73 71 72 84 83 81 77 73 73 71 72 71 70 71 70 70 69 68 68 83 82 83
82 79 76 76 77 78 81 84 83 83 83 82 83 84 85 85 79 71 71 70 70 70 69 69 70 81 80 70 81 85 80 81
84 81 81 79 77 79 77 79 81 81 83 84 83 85 85 84 85 82 81 73 83 78 78 80 81 81 80 82 83 81 82 82
86 84 81 80 81 79 78 76 77 76 76 76 79 79 84 84 84 84 81 83 82 83 83 82 81 81 81 80 79 82 85 83
87 85 82 82 79 81 81 77 79 80 77 76 76 77 78 83 83 83 81 83 81 81 80 79 79 78 79 78 78 80 81 81
83 85 85 83 81 80 81 81 83 78 76 75 74 77 79 76 76 77 83 81 79 79 77 79 78 77 75 75 77 78 80 78
79 79 82 82 81 81 81 83 81 83 77 74 74 75 77 77 75 76 77 80 77 76 74 76 75 76 75 74 76 75 76 76
77 79 78 79 81 82 83 83 82 83 82 76 75 74 76 74 74 74 73 74 72 71 70 68 68 73 73 73 75 74 72 74
74 75 75 75 78 81 81 81 80 82 82 80 77 74 75 74 74 74 72 70 71 69 67 68 67 72 74 73 73 69 69 70
73 74 73 73 75 79 81 81 77 80 80 80 78 75 73 73 73 72 71 69 70 69 68 67 68 68 67 65 66 70 71 68
70 70 71 72 73 76 79 78 76 78 81 80 78 76 73 72 72 70 69 69 69 68 67 65 65 67 64 62 63 66 67 65
67 68 68 69 71 73 78 80 80 78 80 79 77 74 73 72 69 68 68 68 68 68 69 63 65 66 61 60 56 58 64 65
64 65 65 66 67 70 73 78 80 75 74 73 75 74 72 71 69 67 67 68 68 69 67 65 61 63 66 64 56 57 58 62
59 60 61 62 64 66 69 73 76 78 76 72 71 70 69 69 67 67 66 67 67 68 68 68 66 61 63 67 72 66 60 54
54 54 56 56 57 58 64 69 77 80 77 70 68 67 67 68 66 67 65 66 66 67 69 70 68 64 62 63 65 66 69 64
51 50 50 52 54 56 58 66 72 78 76 68 66 65 66 67 68 68 67 66 66 65 67 70 69 66 64 63 65 64 65 62
48 46 46 49 50 53 58 66 70 73 75 70 65 65 65 66 69 66 66 66 67 66 66 69 68 65 64 62 63 64 67 65
47 43 44 46 49 52 57 70 72 75 72 69 68 68 70 72 68 68 68 68 67 66 66 70 70 67 65 64 62 63 68 61

GFSFLT2_sfc_temp_105.txt.gz
Temp
89 83 78 72 72 72 71 72 73 73 73 74 74 74 73 74 74 75 75 74 74 74 73 73 73 72 72 70 69 71 85 86
87 85 83 82 81 71 71 71 72 72 73 72 72 72 73 73 73 74 74 74 73 74 73 72 72 71 70 69 69 69 82 83
82 82 82 83 85 80 72 72 72 72 73 72 72 83 82 81 77 74 73 72 72 71 70 71 71 70 70 69 69 81 83 86
82 78 78 79 85 84 83 83 83 82 83 82 82 84 86 86 80 72 72 71 71 70 70 69 70 83 79 70 77 83 83 82
88 83 81 80 81 81 82 87 85 85 84 84 83 85 86 86 87 82 82 73 82 77 78 80 81 83 81 80 80 83 81 82
89 89 84 82 86 83 85 86 84 87 86 85 85 85 86 86 87 85 81 83 82 83 82 80 80 80 81 80 80 80 84 80
89 90 87 85 83 86 85 85 85 84 82 82 86 87 85 87 87 88 85 82 83 84 78 79 80 79 79 80 80 78 81 76
85 85 86 87 85 83 84 85 86 84 85 79 78 81 81 85 86 87 86 85 81 83 83 78 78 79 77 78 78 78 78 78
82 82 83 82 85 85 84 85 85 86 86 83 76 77 80 83 80 79 84 86 80 77 79 80 78 78 76 77 79 77 76 77
81 82 80 79 79 82 85 86 85 85 87 85 80 79 81 81 82 76 79 83 80 77 78 76 76 75 75 75 75 75 75 76
78 78 78 77 77 78 81 83 85 86 87 87 82 80 81 80 81 76 79 80 76 74 76 75 74 76 75 75 74 74 74 76
77 77 76 76 77 77 79 82 84 86 86 87 84 81 80 78 78 75 75 73 73 71 69 72 71 73 75 70 72 74 74 70
74 72 73 74 74 75 77 78 83 85 85 85 84 82 79 76 76 75 75 71 74 69 69 69 67 70 66 65 67 71 69 71
70 70 71 71 72 73 74 76 80 84 85 83 83 79 76 73 74 75 74 71 73 69 69 66 67 67 63 62 57 59 64 70
67 66 66 68 68 69 71 74 75 76 81 81 82 81 78 73 74 74 71 71 69 68 70 67 65 65 67 65 57 57 59 65
65 64 64 65 65 64 62 66 71 79 81 83 80 80 75 73 74 72 70 71 69 69 70 69 70 63 65 69 73 72 64 56
63 62 61 62 61 59 57 58 66 74 78 82 80 77 74 74 73 71 68 69 68 68 69 70 72 67 65 63 69 69 70 67
60 59 58 58 54 53 52 53 57 66 75 79 80 76 71 70 69 69 69 70 67 66 68 71 72 71 69 67 67 65 65 66
56 54 53 52 49 49 50 52 54 60 67 74 78 72 67 66 67 66 69 68 66 66 66 68 70 70 69 68 67 70 70 70
51 50 49 49 46 46 49 51 54 60 67 73 75 74 71 67 66 66 67 69 70 68 69 69 69 68 68 69 68 69 70 69

GFSFLT2_sfc_temp_108.txt.gz
Temp
79 78 76 72 72 72 72 72 73 73 74 74 74 74 73 74 74 74 75 75 74 75 73 73 73 73 72 70 69 70 72 78
82 78 77 76 75 72 71 72 72 72 73 72 72 72 73 73 73 74 74 74 74 74 72 72 72 71 71 69 68 70 71 75
80 78 77 78 78 75 72 73 72 72 72 72 70 75 75 75 74 73 73 72 72 72 72 71 71 70 70 69 69 71 74 75
79 76 75 77 82 77 76 77 75 75 76 74 75 76 77 79 75 72 72 71 71 71 70 70 69 72 70 69 70 73 74 74
81 77 75 74 75 75 78 78 77 76 77 76 75 78 77 77 77 75 73 71 74 71 70 72 73 73 72 72 72 73 71 73
81 78 77 75 75 77 77 78 79 78 77 77 77 76 77 77 78 76 75 75 74 75 74 73 74 74 74 72 72 72 71 72
79 78 75 76 75 75 76 77 75 79 77 78 79 77 76 78 78 78 76 77 75 75 75 75 74 74 73 74 72 72 73 69
79 78 76 77 77 75 74 75 76 77 78 77 77 77 77 78 77 77 77 77 76 77 76 72 72 72 71 72 72 71 72 71
77 77 75 74 73 75 75 76 75 75 78 77 76 76 74 75 75 76 78 77 75 75 73 71 71 72 71 70 70 71 70 70
77 78 74 74 72 72 74 74 77 78 78 79 76 75 75 74 75 74 73 74 74 74 73 70 69 69 69 69 69 69 69 69
74 73 72 71 71 72 72 72 73 77 78 78 75 75 74 74 75 75 74 73 71 73 71 71 68 67 70 70 70 67 67 70
72 71 69 69 70 70 71 71 71 74 78 79 78 75 74 74 75 74 74 73 73 71 70 70 68 68 70 68 67 66 67 67
68 67 66 66 67 66 67 68 70 71 77 78 77 75 75 75 74 74 72 72 72 70 67 68 65 66 64 64 63 65 66 64
65 65 64 64 65 65 65 64 66 68 70 71 76 76 74 74 73 72 72 71 70 69 67 65 66 67 63 60 56 59 61 64
64 63 62 62 63 63 64 64 65 66 67 69 72 76 75 73 73 71 69 68 66 68 67 65 64 65 66 59 55 54 56 61
62 61 61 62 60 58 56 56 56 59 63 68 72 75 75 73 72 71 69 68 66 66 67 66 66 62 64 66 63 61 55 54
59 58 58 57 57 55 52 51 54 57 60 62 66 70 74 73 71 70 68 67 67 68 66 67 65 64 63 62 63 63 62 57
56 54 53 54 54 51 49 47 49 51 53 56 61 67 70 72 70 70 70 67 66 67 65 66 65 65 65 64 62 62 61 58
53 52 51 53 51 48 47 47 47 48 50 53 56 60 65 68 69 67 67 67 66 67 66 65 65 64 64 64 65 65 64 63
51 50 48 49 48 46 46 46 47 49 50 53 55 59 65 67 67 67 66 66 67 66 66 63 62 61 63 64 64 65 65 62

GFSFLT2_sfc_temp_111.txt.gz
Temp
72 72 73 72 72 72 71 72 72 73 73 73 73 73 73 73 74 74 74 74 74 74 73 72 73 72 71 70 69 69 69 68
72 71 71 70 70 71 71 71 72 72 72 72 72 72 72 73 72 73 73 73 73 73 72 72 72 71 70 69 68 68 69 68
73 72 72 71 70 72 71 72 71 71 72 71 70 72 72 72 72 72 73 72 72 72 71 70 70 70 70 69 68 68 69 69
72 72 72 73 76 70 69 72 70 70 71 71 72 71 72 74 72 71 71 71 71 71 70 69 69 68 68 69 67 68 69 69
72 72 72 73 74 70 70 71 70 70 70 70 71 72 72 72 72 72 70 71 70 70 69 68 68 68 68 67 67 68 67 69
72 72 71 70 72 72 72 71 71 70 71 70 70 70 70 72 72 71 70 71 70 69 69 68 69 70 70 68 68 68 67 68
70 71 71 72 71 70 72 71 71 72 72 73 74 72 72 71 73 72 72 71 70 70 70 70 70 70 70 69 69 68 69 67
68 68 68 70 68 68 68 68 69 70 70 72 75 74 73 72 71 72 72 73 72 72 71 70 70 70 69 69 69 68 69 67
68 68 67 66 70 66 64 66 70 68 69 71 73 73 71 74 72 71 73 74 72 72 69 69 69 69 69 68 68 68 68 67
67 70 65 64 64 64 66 65 64 66 70 69 71 73 70 69 68 68 70 73 72 71 71 67 68 67 65 66 66 67 67 67
64 63 63 63 63 63 63 64 64 64 65 68 69 72 73 71 69 68 69 67 70 71 68 70 67 66 66 65 65 65 66 66
63 62 61 61 61 61 61 61 63 64 65 68 70 69 71 70 71 71 68 68 66 66 69 67 69 67 68 65 64 66 66 64
59 58 57 58 57 56 58 57 60 61 64 66 66 68 70 71 71 70 71 70 71 68 67 67 63 65 62 61 60 64 64 64
57 56 55 56 56 56 55 56 57 60 62 64 65 66 65 70 70 70 70 68 68 67 67 63 63 65 61 60 57 58 61 64
54 54 54 54 54 54 54 54 54 55 57 58 60 63 64 66 70 70 69 68 68 65 64 64 61 62 62 58 54 53 54 57
52 52 52 54 52 50 47 46 46 50 51 55 56 59 60 63 67 70 69 67 65 64 60 61 59 61 61 64 59 57 53 54
50 51 51 51 50 48 46 44 46 49 50 50 52 55 58 61 63 67 69 66 65 61 60 62 65 63 61 63 62 59 57 54
47 48 49 49 48 47 45 44 45 45 46 47 50 52 53 57 61 64 68 68 65 64 63 64 63 64 65 65 64 61 60 57
49 46 44 46 46 46 45 43 45 44 46 47 48 50 51 54 58 61 64 67 67 65 64 64 64 63 63 62 63 64 61 62
44 43 41 42 44 44 44 44 44 45 46 48 48 49 53 55 56 61 61 63 65 65 64 63 61 63 62 63 63 63 63 61

GFSFLT2_sfc_temp_114.txt.gz
Temp
71 71 73 71 71 71 71 71 72 72 72 72 73 73 72 73 73 74 74 73 73 73 73 72 72 72 71 70 69 69 68 68
70 70 71 70 70 70 70 70 71 71 71 71 71 71 72 72 72 73 73 73 72 73 72 71 71 71 70 69 68 68 67 68
69 69 70 69 70 71 71 71 71 70 71 71 70 72 72 72 71 71 72 71 71 71 71 70 70 70 69 68 68 68 68 67
70 70 69 69 73 70 69 71 71 71 72 72 73 72 71 72 71 70 71 70 70 70 70 69 69 68 68 68 67 67 67 67
70 70 70 69 70 69 68 69 68 69 70 72 72 72 71 71 70 70 70 70 70 70 69 69 68 68 66 66 67 67 66 67
70 70 69 70 69 69 68 68 68 68 69 69 70 70 70 71 70 70 69 70 69 69 69 69 68 68 68 67 67 67 66 66
67 69 68 69 71 70 70 70 69 69 68 70 70 69 69 70 71 70 70 70 70 69 68 68 68 68 68 68 67 67 67 66
64 64 65 68 64 64 66 68 68 68 68 69 70 70 71 71 71 70 70 70 69 69 68 68 68 68 67 67 68 67 67 66
64 63 62 62 62 63 62 62 64 67 69 68 69 70 70 72 71 71 71 71 70 69 68 68 67 68 67 67 67 67 67 66
61 63 60 59 59 60 63 61 60 62 63 65 68 71 71 69 69 70 70 71 70 69 68 67 67 66 66 65 65 66 66 65
58 58 57 57 58 58 58 58 59 59 60 61 64 67 69 69 68 68 67 68 68 69 68 68 66 66 66 64 65 65 65 66
57 57 56 57 56 56 56 56 57 59 59 61 62 61 65 67 69 69 67 66 66 67 68 68 67 67 66 64 64 65 65 64
55 53 53 53 53 52 53 52 53 55 57 60 60 60 61 62 67 67 67 67 68 66 66 64 64 65 61 59 61 64 63 64
52 51 51 51 51 50 49 50 50 53 55 55 57 57 57 59 59 64 68 67 66 64 66 65 65 64 64 62 58 59 61 63
49 49 49 50 50 49 48 48 49 49 50 50 53 54 55 55 57 59 60 66 67 66 64 65 65 62 61 59 55 55 57 59
48 50 49 50 48 46 44 42 42 45 46 49 50 52 53 54 55 57 59 61 65 66 64 63 60 57 57 58 59 57 53 53
47 46 46 47 46 45 43 42 43 44 47 48 49 50 52 52 53 54 56 58 62 66 62 58 59 57 56 57 59 60 58 54
45 44 42 44 45 43 45 43 43 43 44 46 48 50 51 53 54 53 55 58 61 64 63 62 59 59 59 62 62 60 59 56
45 42 41 40 41 41 43 44 43 43 43 44 45 46 47 50 52 53 54 55 59 63 61 60 60 60 60 61 62 64 63 62
40 41 40 40 40 40 42 43 42 42 42 43 44 46 48 49 50 53 53 55 57 61 63 61 60 61 61 61 62 64 64 62

GFSFLT2_sfc_temp_117.txt.gz
Temp
70 71 72 71 71 71 71 71 72 72 72 72 73 72 72 73 73 74 74 73 73 73 73 72 72 71 71 69 69 69 68 67
69 69 70 70 70 70 70 70 71 71 71 71 71 71 72 72 72 73 73 73 72 73 72 72 71 71 70 69 68 69 67 67
68 68 69 69 69 70 70 71 70 70 71 70 69 71 71 71 71 71 72 71 71 71 71 70 70 70 69 68 68 67 67 66
68 68 68 68 71 69 69 70 70 71 71 70 71 73 71 71 70 70 70 70 70 70 70 69 69 67 67 68 66 67 67 66
69 69 68 68 68 67 67 68 69 71 72 73 72 73 72 71 71 70 69 69 69 69 69 69 68 67 66 66 66 66 66 66
68 69 69 68 69 67 67 67 67 68 70 71 71 70 70 71 72 72 70 68 69 69 69 69 68 68 67 66 66 65 65 66
66 66 65 67 69 69 69 68 67 67 67 69 71 70 70 72 72 72 70 69 68 68 69 69 68 67 67 66 66 66 66 66
62 63 63 65 62 62 63 64 67 68 67 67 68 68 69 69 71 71 71 68 69 68 69 69 69 68 67 67 67 66 66 66
60 59 60 60 60 60 58 59 62 63 63 66 67 68 68 68 68 69 69 69 68 68 67 67 67 68 67 67 67 67 66 66
57 60 56 56 56 56 58 57 57 57 60 62 64 65 67 68 68 68 70 68 68 68 67 67 68 67 67 66 66 66 66 66
54 54 53 53 54 54 54 54 55 55 56 57 60 62 63 62 65 68 68 68 67 68 67 67 67 67 67 67 65 65 66 66
53 52 51 51 51 51 52 52 52 53 54 56 57 57 59 58 60 63 66 65 66 67 67 67 67 66 66 66 64 65 66 66
50 49 49 50 48 46 46 46 48 50 52 53 54 54 55 55 56 57 60 65 65 64 65 66 66 65 62 61 60 62 63 64
48 47 47 47 47 46 45 44 46 48 49 50 51 51 51 53 52 54 56 57 61 65 65 63 63 64 64 61 58 60 61 63
46 46 46 46 46 46 44 45 45 45 45 47 49 50 51 51 51 52 53 54 55 59 64 64 63 61 62 60 54 56 58 59
44 44 44 46 46 43 40 39 40 42 43 46 48 50 50 51 51 51 51 53 54 56 61 64 64 59 57 58 57 57 55 51
42 42 42 42 42 42 42 42 44 45 46 45 46 49 51 52 52 53 52 52 53 54 56 62 64 63 57 55 56 55 56 53
42 41 41 42 41 41 41 42 42 42 43 43 45 46 48 50 51 51 52 52 53 54 56 59 63 61 60 60 57 56 55 54
42 40 38 39 39 39 42 42 42 41 41 41 42 43 45 47 48 48 49 51 53 54 54 56 62 61 59 59 61 61 60 60
39 39 38 38 38 39 40 41 41 41 41 41 42 42 43 45 46 46 47 49 51 52 54 55 59 61 60 58 60 61 62 62

GFSFLT2_sfc_temp_120.txt.gz
Temp
69 70 72 71 71 71 71 71 72 72 72 72 73 73 73 73 74 74 74 73 73 73 73 72 72 71 71 70 69 69 69 68
68 68 69 69 69 69 70 70 70 71 71 71 71 71 72 72 72 73 73 73 72 73 72 71 71 71 70 69 68 69 68 67
67 67 68 68 69 70 70 71 70 70 70 70 68 70 70 71 71 71 72 71 71 71 71 70 70 70 69 68 68 67 67 67
67 67 67 68 70 69 69 69 69 70 72 71 71 72 71 70 70 70 70 70 70 70 70 69 69 68 68 68 67 67 67 67
68 67 67 67 68 67 67 68 70 71 72 72 72 72 72 71 71 69 68 69 69 69 69 69 68 67 67 67 66 67 67 67
67 67 67 67 68 67 67 68 69 69 70 71 70 69 69 70 71 72 71 70 69 68 69 69 68 68 67 66 66 66 67 67
69 69 69 68 69 69 67 66 67 68 68 70 70 69 68 69 70 70 71 71 70 70 70 70 70 69 68 67 66 66 67 66
60 62 64 66 62 62 62 64 65 67 67 67 69 69 68 68 69 70 69 69 70 70 70 70 70 70 69 68 67 67 66 66
57 57 58 58 58 58 57 59 60 61 62 63 65 65 64 66 68 69 70 70 67 69 68 68 69 69 69 69 68 67 66 66
54 56 54 54 55 55 56 56 56 56 57 59 60 62 62 63 62 65 68 69 68 68 68 67 67 67 67 68 68 68 66 66
51 51 51 51 52 52 53 53 53 53 53 54 56 57 58 57 60 62 64 66 67 67 67 67 66 66 66 67 67 66 66 66
49 49 49 49 49 50 49 49 50 50 51 52 53 53 54 53 55 56 57 61 65 65 65 65 65 66 66 65 66 66 66 65
47 46 46 47 46 45 46 45 47 47 49 49 50 50 51 50 51 52 54 55 57 62 64 62 62 66 62 61 63 64 64 64
44 44 45 45 45 45 44 44 46 46 46 47 48 49 49 50 48 49 51 52 53 55 61 63 63 65 62 60 57 61 62 63
43 43 43 45 45 45 45 43 44 44 44 45 47 49 49 49 49 49 50 51 51 53 55 58 62 62 64 60 55 56 58 60
43 44 43 44 43 43 42 40 41 44 44 44 46 48 48 49 51 52 52 52 52 52 54 55 58 61 60 63 59 58 56 54
42 43 41 42 41 42 41 40 42 44 44 44 44 45 48 49 50 50 50 51 52 53 53 54 54 57 60 57 57 57 55 56
41 41 41 40 40 41 40 40 41 41 42 42 43 45 46 47 48 47 48 49 50 52 54 54 54 56 59 60 59 58 56 56
39 38 37 40 40 40 40 40 40 40 40 40 41 41 42 43 45 45 45 47 48 49 50 51 53 54 56 59 62 62 60 61
37 37 37 38 39 39 40 40 40 39 40 40 40 40 40 42 43 44 45 46 47 48 49 51 53 54 55 57 62 62 62 61

GFSFLT2_sfc_temp_123.txt.gz
Temp
78 79 77 71 70 71 71 72 72 72 72 73 73 73 73 73 74 74 74 74 73 73 73 72 72 72 71 70 69 70 82 81
77 77 78 78 78 70 70 70 71 71 72 72 71 71 72 72 72 73 73 73 73 73 72 72 72 71 70 69 69 69 81 81
77 76 77 77 78 77 72 71 71 70 72 71 71 79 79 79 75 72 72 71 71 72 71 70 70 70 70 69 69 81 80 82
78 76 76 76 77 77 78 78 79 79 78 77 76 76 77 78 75 70 70 70 70 70 70 70 70 81 80 71 80 81 80 81
79 76 76 75 76 77 78 78 76 76 76 75 74 75 76 76 76 78 78 73 80 77 77 78 78 80 80 80 80 79 80 81
76 77 75 75 77 76 73 73 73 74 74 74 74 72 72 72 75 75 75 76 77 79 79 77 77 77 78 78 78 80 81 81
75 76 75 75 74 73 73 73 71 72 72 72 72 72 72 72 72 72 74 77 74 74 76 76 74 74 75 77 77 78 79 79
66 64 63 72 72 72 70 69 68 68 68 69 72 70 70 70 71 71 71 71 72 74 74 74 74 73 71 72 76 78 78 77
61 62 59 59 64 65 67 64 65 65 64 64 65 65 65 68 70 69 71 72 70 72 70 71 73 74 72 71 71 73 76 76
58 57 55 56 59 62 64 64 63 63 63 63 64 64 64 64 64 65 66 67 71 72 69 68 68 70 71 72 71 70 70 73
52 52 51 53 58 61 61 61 62 63 63 63 62 62 62 64 64 64 62 63 65 67 69 69 69 69 69 69 70 69 69 69
50 50 49 51 56 59 61 61 60 60 60 60 59 59 60 61 64 63 63 64 65 65 65 67 68 69 68 67 68 67 70 68
49 47 48 49 52 52 56 56 57 57 57 57 57 57 57 59 60 60 61 62 63 64 64 63 65 67 64 64 64 66 66 66
48 47 47 47 50 51 52 52 56 55 55 55 55 56 56 57 57 57 57 57 60 61 63 63 65 65 62 63 58 62 66 66
45 44 45 45 47 51 52 53 53 53 53 53 53 54 54 54 54 54 54 54 53 54 58 61 62 64 67 62 56 56 66 68
46 44 43 44 45 46 47 43 43 47 49 51 52 52 52 52 52 52 52 53 53 54 56 55 58 60 63 66 70 64 60 58
42 46 43 43 43 45 43 42 43 45 47 47 48 50 50 49 49 49 49 50 51 51 53 54 56 56 61 61 63 65 65 58
45 43 42 42 42 42 40 40 41 41 42 42 43 46 47 47 47 47 47 48 48 49 50 51 53 55 56 60 60 64 63 61
40 39 38 41 43 42 41 41 41 40 39 40 41 42 42 43 44 44 45 46 47 48 49 50 51 52 54 56 59 61 67 64
40 40 40 41 41 40 41 42 41 40 40 40 40 40 41 43 42 43 43 44 45 46 47 48 50 51 52 54 56 61 63 66

GFSFLT2_sfc_temp_126.txt.gz
Temp
87 87 83 71 71 71 71 72 72 73 73 74 74 74 74 74 74 74 74 74 74 74 74 73 73 73 72 71 70 71 87 91
86 86 85 86 86 71 71 71 71 72 72 72 72 72 73 73 73 73 74 74 73 73 73 72 72 72 71 70 69 70 84 90
88 86 86 86 86 84 73 72 72 71 73 71 73 84 85 83 77 74 73 72 72 72 72 71 71 71 70 70 69 86 87 89
89 87 85 85 88 86 85 86 86 84 85 85 83 84 86 85 80 72 71 71 71 71 71 70 71 86 85 72 83 87 88 89
89 86 86 85 87 88 88 89 88 86 84 83 80 79 79 81 84 84 83 74 83 79 79 80 83 86 89 88 87 87 89 90
83 84 85 85 87 87 88 88 86 85 83 80 80 79 80 80 77 79 83 86 83 80 79 82 83 85 86 86 86 88 90 90
75 76 74 77 82 85 83 83 82 83 81 81 76 75 77 78 75 74 75 79 80 80 80 80 81 82 83 83 84 85 86 89
70 69 69 65 64 70 74 76 77 76 75 78 77 74 74 75 76 75 74 74 76 77 77 77 76 75 78 81 81 84 86 86
64 63 63 64 61 63 65 68 69 68 67 67 69 69 68 73 77 77 77 78 74 74 75 75 73 73 74 76 78 80 81 83
62 61 59 60 62 63 64 65 66 65 66 67 67 67 66 66 68 68 69 70 68 73 73 74 72 70 70 71 73 77 79 81
58 58 56 56 57 61 64 64 66 67 67 67 65 67 67 68 71 71 69 68 68 66 68 71 71 71 71 70 71 72 76 74
55 54 56 57 57 59 63 65 65 67 68 66 65 66 66 68 72 71 71 73 74 70 66 67 67 68 68 68 69 70 72 70
56 52 50 51 56 55 56 57 66 66 66 64 64 64 63 65 68 69 70 70 71 71 72 72 72 72 65 65 66 69 66 65
55 52 50 50 51 51 57 57 63 64 64 63 63 61 61 61 58 59 58 60 63 65 68 69 72 71 65 63 59 61 66 65
57 55 51 50 50 52 54 58 60 59 60 61 59 59 57 54 54 54 54 55 56 56 57 59 65 72 69 69 61 60 70 70
55 52 55 54 53 52 52 56 56 56 58 57 57 57 53 52 51 52 53 53 53 53 56 55 56 58 68 66 72 75 68 67
49 53 52 51 51 48 49 50 52 56 56 53 53 53 53 51 50 50 50 51 51 50 50 51 53 54 58 64 65 69 69 68
50 50 50 50 46 48 48 46 45 47 48 48 50 49 49 49 49 49 49 49 48 49 50 50 51 52 54 57 59 60 69 68
50 50 50 49 47 45 45 43 45 44 43 42 43 43 44 46 46 46 47 47 48 48 48 50 51 50 52 54 56 58 61 64
46 47 47 48 46 45 46 45 44 44 43 41 41 42 43 44 44 45 45 46 46 47 47 49 51 50 50 49 52 56 58 62

GFSFLT2_sfc_temp_129.txt.gz
Temp
90 90 81 72 72 72 72 73 73 74 74 74 75 74 74 74 74 74 75 74 74 74 74 74 74 73 73 72 71 71 81 90
90 90 89 89 87 71 72 72 72 73 73 73 73 73 74 73 74 74 74 74 73 73 73 73 73 72 72 71 70 71 81 87
90 89 90 90 90 86 73 72 73 72 73 72 73 83 85 83 78 75 73 72 71 72 71 72 71 71 71 70 70 82 85 88
92 87 86 88 92 91 88 88 85 84 85 85 83 84 86 88 82 73 72 72 71 71 71 70 71 84 83 72 80 84 87 90
84 82 84 87 89 92 92 92 91 89 84 83 82 83 85 83 85 83 82 74 82 78 79 81 82 84 87 85 85 85 88 91
79 78 76 76 78 90 92 92 92 91 90 84 81 81 82 81 82 82 81 85 82 81 78 81 82 84 86 87 88 89 90 91
72 73 71 73 72 71 76 82 86 87 85 82 80 80 78 79 79 79 80 80 80 80 81 79 77 78 78 81 83 87 87 90
68 69 68 70 67 64 64 65 67 70 69 68 69 69 74 76 77 77 77 78 80 79 78 79 78 79 77 77 78 82 84 86
65 65 64 65 68 65 65 62 63 63 65 65 66 66 65 66 69 72 73 75 76 76 77 77 78 78 78 80 79 79 81 82
65 65 64 64 64 68 64 61 62 63 66 65 65 67 67 66 67 66 68 68 68 72 72 69 72 74 74 76 77 78 79 78
64 62 61 64 65 64 65 64 63 64 65 65 65 66 67 67 70 71 70 70 69 69 68 68 70 69 69 72 73 73 75 78
63 61 60 61 66 66 65 61 64 65 64 64 65 66 67 69 72 72 72 73 74 74 71 72 67 67 68 68 69 71 73 73
62 60 59 60 60 61 64 61 60 61 63 65 66 65 64 64 64 65 65 65 66 67 69 70 72 72 66 68 67 67 70 67
62 62 61 61 62 61 62 63 65 61 60 63 64 63 60 59 56 57 58 58 58 60 60 61 67 72 67 62 61 64 65 66
61 61 61 60 60 63 63 64 64 63 63 58 60 61 59 55 55 56 55 56 55 55 56 55 55 63 67 66 60 62 70 69
57 58 58 58 57 58 56 58 58 60 60 61 60 60 58 56 54 53 53 54 53 53 55 53 52 51 59 67 69 68 60 63
57 57 58 55 54 53 54 53 54 56 56 56 58 58 57 55 53 52 51 52 51 51 51 51 52 50 52 54 59 64 65 63
57 57 57 55 54 52 49 48 47 48 47 48 50 53 54 52 51 51 50 49 49 49 49 49 50 51 52 53 53 53 58 61
54 54 53 52 51 50 49 49 49 48 45 44 43 45 44 46 48 47 46 47 47 48 47 48 49 49 50 50 52 53 55 55
51 52 51 50 49 48 47 47 47 47 45 44 43 43 43 44 43 45 44 45 47 46 47 47 48 47 48 49 50 52 52 53

GFSFLT2_sfc_temp_132.txt.gz
Temp
85 81 78 73 73 73 73 73 74 74 74 74 75 74 74 75 75 75 75 74 74 74 74 74 74 73 73 71 70 71 70 76
81 81 84 80 77 71 72 72 72 73 73 73 73 73 74 73 73 74 74 74 74 73 73 73 73 72 71 71 70 70 71 75
77 76 77 78 84 81 72 73 73 72 73 72 71 75 78 77 75 74 73 72 72 72 72 71 71 72 71 71 70 72 75 76
77 73 72 74 84 80 79 80 77 77 78 78 75 76 78 82 78 73 72 71 71 71 71 71 70 75 73 70 71 74 76 79
72 70 69 70 71 75 77 81 80 80 79 79 78 78 77 76 75 74 73 71 75 72 72 72 75 75 77 75 74 75 77 79
68 69 66 67 69 68 68 69 71 76 75 76 75 74 75 74 74 74 73 73 73 74 75 75 75 77 78 78 76 77 78 80
65 66 64 66 66 65 64 64 64 66 66 67 68 69 70 72 72 72 71 72 72 71 73 74 75 75 76 77 77 76 79 81
64 64 63 64 64 63 62 63 62 63 63 63 65 65 64 65 67 70 70 69 69 70 71 72 72 75 75 75 75 75 75 76
62 62 61 62 61 63 61 62 62 62 62 62 62 62 63 64 65 66 67 68 67 67 68 69 70 71 73 73 73 74 74 73
62 62 60 61 61 61 62 60 62 62 62 62 62 64 64 64 66 66 67 67 66 66 66 66 67 67 67 68 69 69 72 73
61 60 58 59 61 63 62 60 62 62 61 60 62 62 63 63 65 66 66 66 67 67 66 66 65 66 66 66 64 66 62 64
61 60 59 59 60 61 63 61 61 61 62 61 62 61 60 60 60 59 60 60 60 60 60 63 63 63 66 65 65 65 65 67
60 59 58 58 58 57 58 57 59 58 59 58 60 59 57 57 56 56 57 56 56 57 56 56 57 61 59 62 63 65 65 66
59 58 58 57 57 58 59 58 59 59 58 57 57 57 57 55 53 53 54 54 55 55 55 54 54 56 54 55 55 59 63 65
56 56 57 55 55 57 57 59 59 57 57 57 57 56 56 53 53 53 52 52 51 51 52 51 49 53 55 54 52 52 57 62
57 57 56 55 54 52 51 51 50 52 53 53 55 55 53 52 51 51 51 51 50 50 51 50 50 48 52 57 54 55 53 53
56 57 55 54 53 51 49 48 48 50 49 49 49 50 50 49 48 49 48 49 48 48 48 48 49 48 49 49 51 54 55 54
54 54 53 52 51 50 48 46 47 47 46 45 45 46 46 46 45 46 47 46 46 46 47 47 47 48 49 49 49 48 49 50
52 53 50 49 48 48 46 46 46 45 43 43 42 42 43 43 44 43 44 45 45 46 46 46 46 45 45 46 48 48 51 50
49 50 48 47 46 46 45 45 44 44 43 43 42 41 42 43 43 43 44 44 44 44 44 44 44 43 43 42 43 46 46 48

GFSFLT2_sfc_temp_135.txt.gz
Temp
74 74 75 73 72 72 72 73 73 73 74 74 74 73 73 74 74 74 74 74 74 74 73 73 73 72 72 71 70 70 69 69
70 70 70 72 73 71 71 72 72 72 73 73 72 72 73 73 73 73 73 73 73 73 73 73 72 72 71 70 69 70 69 69
67 66 67 68 73 74 71 72 72 72 72 72 70 71 72 73 72 72 72 72 71 72 72 71 71 71 70 70 69 69 69 71
65 64 64 66 72 67 67 72 72 71 71 71 70 70 71 76 73 71 72 71 71 71 71 70 70 72 71 70 70 70 70 72
62 62 62 63 64 64 65 66 67 68 69 72 71 73 71 72 71 71 70 70 71 70 71 71 71 71 72 71 71 70 71 73
60 60 60 61 61 62 62 64 65 64 64 65 67 68 69 69 70 69 69 70 69 70 70 72 71 72 72 73 72 71 72 74
57 58 58 60 60 60 60 61 62 62 61 63 62 62 63 64 66 68 68 67 67 67 68 70 70 71 72 73 74 71 71 70
56 55 55 56 57 56 57 60 62 61 61 62 63 60 60 61 63 65 66 66 65 65 65 66 66 67 68 70 72 71 72 70
55 56 54 54 55 56 55 56 58 59 61 60 61 60 61 62 63 65 65 64 64 64 64 65 65 67 67 68 68 68 68 66
54 57 53 53 53 55 55 55 55 55 57 59 59 59 59 60 60 58 60 60 62 61 61 62 62 63 63 65 65 66 66 66
53 52 52 53 53 54 54 55 55 55 56 57 57 57 57 57 57 58 58 58 56 56 56 55 56 58 60 62 64 63 65 66
53 52 51 52 51 52 53 53 53 53 53 55 56 55 56 54 55 55 55 55 55 54 53 54 53 54 58 58 60 63 63 61
51 50 49 50 50 50 49 49 51 51 52 53 54 53 53 53 53 52 53 52 53 53 53 52 51 52 51 52 55 58 61 62
50 49 48 49 49 49 48 48 51 51 51 52 52 52 50 51 49 51 51 51 52 51 51 50 52 52 49 49 50 54 55 59
49 48 47 47 47 48 49 49 50 48 47 48 49 50 48 46 47 47 48 49 48 49 49 49 47 51 52 50 48 46 51 54
48 48 47 48 46 45 43 42 41 43 43 45 46 47 46 44 44 46 47 47 47 47 49 48 47 46 50 54 52 52 49 48
47 47 46 46 44 42 40 39 41 43 42 43 43 45 46 44 43 43 45 45 46 46 46 46 47 46 47 47 49 51 52 49
44 44 44 44 43 42 40 39 39 39 40 42 43 44 44 44 45 44 44 44 44 44 45 46 45 45 46 46 46 45 46 47
45 42 41 41 42 42 42 43 43 40 41 41 40 40 41 41 42 42 43 44 44 44 44 44 43 42 42 42 44 45 45 46
40 42 40 42 44 42 44 43 42 42 41 41 40 40 40 42 41 42 42 43 43 43 42 42 42 41 40 40 40 41 42 42

GFSFLT2_sfc_temp_138.txt.gz
Temp
66 67 68 69 70 70 70 71 73 73 73 73 74 73 73 73 74 74 74 73 73 73 73 72 72 72 71 70 69 69 68 67
64 64 65 67 69 68 70 70 70 71 72 71 71 72 72 72 72 73 73 72 72 72 72 72 72 71 70 69 69 69 68 67
62 61 62 64 68 68 68 69 70 70 71 70 69 71 71 72 72 71 72 71 71 71 71 70 69 70 70 69 69 68 68 69
60 59 59 62 67 63 64 68 68 67 67 70 69 69 69 73 71 70 70 70 70 70 70 70 69 70 71 69 70 69 68 69
58 58 58 58 59 60 61 65 65 64 63 64 67 70 69 70 70 71 70 70 70 70 70 70 71 70 70 72 71 72 69 70
56 56 56 56 57 57 58 62 64 62 62 62 62 63 63 65 67 68 67 68 68 68 68 69 69 70 71 72 70 70 70 71
53 55 54 55 55 55 56 56 59 60 61 62 61 60 59 61 63 64 64 65 65 65 65 66 67 68 69 69 70 70 70 69
53 53 52 53 53 54 53 54 56 56 59 60 61 59 57 58 60 62 61 62 62 63 62 64 64 65 66 66 67 68 70 69
53 54 52 51 51 53 53 53 55 55 56 56 56 57 57 59 58 57 56 59 57 57 57 58 60 62 64 65 65 66 66 66
52 54 51 50 51 51 52 52 51 52 53 54 54 55 55 54 55 53 55 57 56 55 54 53 54 56 56 59 62 64 65 65
49 49 49 49 49 50 51 51 50 50 51 52 53 53 53 52 52 51 53 54 55 55 52 51 51 52 53 56 57 60 62 64
49 49 48 48 48 49 50 50 49 50 51 51 51 51 51 50 51 50 51 53 51 51 50 51 50 50 53 54 54 56 59 60
47 46 46 46 45 44 46 45 47 48 49 50 49 48 48 47 47 48 49 48 48 49 49 48 48 51 48 49 51 54 55 58
46 45 45 44 44 43 44 44 45 45 46 47 47 46 45 46 44 45 46 46 47 47 47 46 48 51 47 46 46 50 51 53
45 44 44 44 44 44 43 44 44 44 43 43 44 45 44 43 43 43 46 47 45 46 47 46 45 49 50 48 47 45 48 51
44 44 43 44 42 40 39 38 38 39 39 41 42 44 43 42 42 42 44 45 44 45 47 46 46 44 48 52 51 50 47 44
42 42 42 41 40 39 38 37 37 38 38 39 41 43 44 44 44 44 43 44 44 44 44 44 45 44 44 45 47 49 51 47
39 40 40 41 40 39 38 36 36 35 37 38 38 42 42 43 43 43 43 43 43 43 44 44 43 43 43 44 43 44 45 44
39 39 38 39 38 38 38 37 36 35 36 38 36 39 39 40 42 41 41 42 43 43 42 42 41 41 40 40 42 42 42 43
38 39 39 39 39 38 38 39 38 36 40 38 36 38 39 40 40 40 40 40 41 42 41 41 40 39 38 38 39 40 40 40

GFSFLT2_sfc_temp_144.txt.gz
Temp
61 62 65 66 67 68 68 69 69 70 71 71 72 71 72 73 73 73 73 73 72 72 72 71 71 71 71 70 69 69 69 68
58 59 61 62 63 67 68 68 68 68 69 69 69 69 71 71 71 72 72 72 71 72 72 71 71 69 68 68 68 69 69 68
56 56 57 59 62 64 65 67 67 66 67 68 69 69 68 69 70 70 71 69 69 70 70 70 69 69 69 68 68 69 69 68
52 54 54 57 62 58 60 64 63 63 64 64 65 67 68 71 69 69 69 69 70 70 69 69 69 70 70 69 70 70 71 70
52 53 53 54 55 55 57 59 62 61 61 61 62 63 63 65 66 66 65 66 65 66 68 68 68 69 70 70 70 70 71 71
51 51 52 52 53 54 54 56 56 58 58 59 59 59 60 61 60 60 60 61 62 63 63 64 64 65 66 67 68 69 70 71
49 51 51 51 52 51 53 52 53 52 53 55 56 56 57 58 57 57 57 57 56 56 57 59 60 62 63 64 65 66 68 69
48 50 50 51 50 49 49 51 51 51 51 50 51 52 54 55 54 55 55 55 56 56 56 56 57 58 59 60 61 63 65 66
49 48 49 49 49 49 49 49 50 49 49 49 49 49 49 49 50 50 52 53 52 53 53 52 53 54 54 55 57 59 61 63
47 51 47 48 48 47 48 47 47 47 47 47 47 47 47 47 47 46 48 50 49 49 49 49 49 50 49 51 53 55 57 59
45 46 46 46 46 46 46 46 45 45 45 44 45 45 46 45 45 45 47 47 46 47 47 46 46 47 49 50 51 52 54 58
45 44 45 45 45 45 45 44 44 44 44 43 43 43 44 43 43 44 45 45 44 45 44 46 45 46 49 50 49 50 51 53
43 43 42 44 43 42 41 39 40 41 42 42 42 42 42 41 41 42 43 42 43 44 44 44 44 47 44 46 47 51 52 52
42 41 41 41 41 41 41 39 39 39 40 40 41 41 41 42 39 40 40 41 41 42 42 42 44 46 42 44 42 47 49 51
40 39 40 40 41 42 41 40 39 38 38 38 39 40 40 40 39 39 39 40 40 42 44 44 42 47 46 45 42 41 45 48
40 40 40 40 40 40 38 36 34 35 35 36 37 39 39 40 39 39 39 40 39 43 44 43 43 41 46 47 47 46 43 41
37 39 38 38 38 37 36 34 34 35 35 35 36 37 38 39 39 38 38 39 41 42 42 41 42 41 40 41 43 44 47 42
36 37 37 38 36 35 35 33 33 33 33 33 34 35 36 36 37 36 37 38 39 40 42 41 40 40 39 39 38 38 38 38
36 36 35 35 35 34 34 33 33 33 32 33 33 33 33 33 34 35 36 37 38 39 40 37 37 36 36 36 38 38 39 38
36 36 35 35 35 34 34 35 35 34 34 33 33 33 32 33 33 33 38 39 38 38 38 36 34 32 33 34 36 36 37 36

GFSFLT2_sfc_temp_147.txt.gz
Temp
68 70 70 67 68 68 68 69 70 70 71 71 72 72 72 73 73 74 74 73 73 73 73 72 72 72 71 70 69 70 80 81
66 67 69 70 71 68 68 67 68 69 69 69 69 71 71 72 72 72 72 72 72 73 72 72 71 70 69 69 69 70 79 81
64 65 66 69 69 68 68 67 66 67 69 67 70 72 75 76 70 70 70 69 69 70 70 70 69 69 69 69 68 79 79 81
64 64 64 66 69 67 68 69 69 68 67 67 67 67 68 70 68 67 67 68 68 69 69 69 70 74 74 70 73 74 77 79
64 63 64 65 65 67 67 67 68 66 64 64 63 64 65 65 66 67 69 67 71 73 74 72 74 77 77 76 77 77 78 82
62 63 63 63 65 64 64 64 64 64 62 60 60 61 60 60 60 60 60 60 64 67 67 70 71 72 74 75 76 78 81 81
61 63 62 62 62 62 62 61 61 60 60 59 62 62 58 59 58 58 58 59 59 59 62 65 67 67 69 70 72 74 75 78
60 61 61 62 60 59 59 59 58 58 58 57 58 60 60 61 60 60 62 63 62 62 62 62 61 62 64 67 67 69 71 72
58 58 60 59 58 58 57 57 57 56 56 55 55 57 57 58 59 59 60 61 60 61 61 62 63 64 64 65 66 67 68 68
59 59 58 57 56 56 56 56 56 55 55 55 54 55 55 56 57 56 58 58 59 60 59 60 60 60 60 63 64 65 66 66
57 57 57 56 55 55 54 53 54 54 54 54 52 53 53 55 55 55 56 56 56 56 57 57 58 59 61 63 64 64 64 66
56 56 56 55 55 54 54 53 52 53 53 52 51 51 51 53 53 52 54 54 54 55 54 56 56 56 59 61 62 64 65 64
55 54 54 55 55 54 53 51 50 50 51 50 50 50 50 51 52 52 52 52 52 53 54 53 55 56 57 60 63 63 62 63
53 54 54 55 56 54 54 51 50 50 50 49 50 49 49 50 50 50 50 51 51 51 51 52 53 54 49 53 54 62 62 62
52 53 53 53 53 52 51 50 49 49 48 47 47 48 48 48 49 50 49 50 49 50 50 49 50 53 51 50 46 48 51 63
51 51 51 51 52 52 51 53 48 47 46 47 47 47 47 47 47 48 48 49 48 49 50 50 50 46 52 53 50 47 43 46
49 49 50 49 50 51 50 47 46 46 46 45 45 46 46 46 46 46 47 48 48 47 47 47 48 47 46 47 49 49 47 40
48 48 48 48 48 47 47 46 44 45 44 44 44 44 44 44 45 46 47 47 46 46 46 45 45 45 46 44 42 40 40 39
46 46 44 45 46 46 46 45 45 44 44 44 43 43 43 42 44 44 45 45 45 44 44 43 42 42 42 40 41 40 40 40
45 44 43 44 44 44 45 45 46 45 45 44 44 43 42 42 43 44 43 44 44 42 42 42 41 40 39 39 38 37 38 38